| time (UTC) | temp F | wind direction | speed knots | gust knots | rain 1hr in | rain 24hr in | rain mn in | humidity % | barometer mb |
| 20260503225209 | 58 | 232 | 8.7 | 14.8 | 0.00 | 0.00 | 0.00 | 1 | 1011.7 |
| 20260503225205 | 58 | 234 | 8.7 | 14.8 | 0.00 | 0.00 | 0.00 | 1 | 1011.8 |
| 20260503225009 | 58 | 188 | 8.7 | 13.9 | 0.00 | 0.00 | 0.00 | 1 | 1011.8 |
| 20260503225005 | 58 | 259 | 8.7 | 13.9 | 0.00 | 0.00 | 0.00 | 1 | 1011.8 |
| 20260503224808 | 58 | 229 | 8.7 | 13.9 | 0.00 | 0.00 | 0.00 | 1 | 1011.8 |
| 20260503224804 | 58 | 232 | 8.7 | 13.9 | 0.00 | 0.00 | 0.00 | 1 | 1011.8 |
| 20260503224455 | 58 | 242 | 7.8 | 13.0 | 0.00 | 0.00 | 0.00 | 1 | 1011.9 |
| 20260503224355 | 58 | 258 | 7.8 | 13.0 | 0.00 | 0.00 | 0.00 | 1 | 1011.9 |
| 20260503224255 | 58 | 230 | 7.8 | 13.0 | 0.00 | 0.00 | 0.00 | 1 | 1011.9 |
| 20260503224155 | 58 | 240 | 7.8 | 13.0 | 0.00 | 0.00 | 0.00 | 1 | 1011.9 |
| 20260503224051 | 58 | 270 | 7.8 | 13.0 | 0.00 | 0.00 | 0.00 | 1 | 1011.9 |
| 20260503223951 | 58 | 225 | 7.8 | 13.0 | 0.00 | 0.00 | 0.00 | 1 | 1011.9 |
| 20260503223851 | 58 | 236 | 8.7 | 14.8 | 0.00 | 0.00 | 0.00 | 1 | 1011.9 |
| 20260503223751 | 58 | 248 | 8.7 | 14.8 | 0.00 | 0.00 | 0.00 | 1 | 1011.9 |
| 20260503223649 | 58 | 244 | 8.7 | 14.8 | 0.00 | 0.00 | 0.00 | 1 | 1011.9 |
| 20260503223547 | 58 | 177 | 8.7 | 16.5 | 0.00 | 0.00 | 0.00 | 1 | 1012.0 |
| 20260503223447 | 58 | 211 | 8.7 | 16.5 | 0.00 | 0.00 | 0.00 | 1 | 1012.0 |
| 20260503223347 | 58 | 240 | 8.7 | 16.5 | 0.00 | 0.00 | 0.00 | 1 | 1011.9 |
| 20260503223247 | 58 | 239 | 8.7 | 16.5 | 0.00 | 0.00 | 0.00 | 1 | 1011.9 |
| 20260503223147 | 58 | 254 | 8.7 | 16.5 | 0.00 | 0.00 | 0.00 | 1 | 1011.9 |
| 20260503223047 | 58 | 279 | 9.6 | 16.5 | 0.00 | 0.00 | 0.00 | 1 | 1011.9 |
| 20260503222955 | 58 | 229 | 8.7 | 16.5 | 0.00 | 0.00 | 0.00 | 1 | 1011.9 |
| 20260503222951 | 58 | 222 | 8.7 | 16.5 | 0.00 | 0.00 | 0.00 | 1 | 1011.9 |
| 20260503222755 | 58 | 232 | 8.7 | 16.5 | 0.00 | 0.00 | 0.00 | 1 | 1011.9 |
| 20260503222751 | 58 | 262 | 8.7 | 16.5 | 0.00 | 0.00 | 0.00 | 1 | 1011.9 |
| 20260503222548 | 58 | 225 | 7.8 | 13.0 | 0.00 | 0.00 | 0.00 | 1 | 1011.9 |
| 20260503222447 | 58 | 278 | 7.8 | 13.9 | 0.00 | 0.00 | 0.00 | 1 | 1011.9 |
| 20260503222347 | 58 | 223 | 8.7 | 13.9 | 0.00 | 0.00 | 0.00 | 1 | 1012.0 |
| 20260503222247 | 58 | 238 | 8.7 | 13.9 | 0.00 | 0.00 | 0.00 | 1 | 1011.9 |
| 20260503222147 | 58 | 215 | 8.7 | 13.9 | 0.00 | 0.00 | 0.00 | 1 | 1012.0 |
| 20260503222047 | 58 | 246 | 7.8 | 13.9 | 0.00 | 0.00 | 0.00 | 1 | 1012.0 |
| 20260503221947 | 58 | 227 | 7.8 | 13.9 | 0.00 | 0.00 | 0.00 | 1 | 1012.0 |
| 20260503221843 | 58 | 225 | 7.8 | 13.9 | 0.00 | 0.00 | 0.00 | 1 | 1012.0 |
| 20260503221743 | 58 | 220 | 7.8 | 13.9 | 0.00 | 0.00 | 0.00 | 1 | 1012.0 |
| 20260503221643 | 58 | 238 | 7.8 | 13.9 | 0.00 | 0.00 | 0.00 | 1 | 1012.0 |
| 20260503221543 | 58 | 217 | 8.7 | 13.9 | 0.00 | 0.00 | 0.00 | 1 | 1012.0 |
| 20260503221443 | 58 | 245 | 8.7 | 14.8 | 0.00 | 0.00 | 0.00 | 1 | 1012.0 |
| 20260503221343 | 58 | 243 | 8.7 | 14.8 | 0.00 | 0.00 | 0.00 | 1 | 1012.0 |
| 20260503221243 | 58 | 226 | 8.7 | 14.8 | 0.00 | 0.00 | 0.00 | 1 | 1012.0 |
| 20260503221143 | 58 | 239 | 8.7 | 14.8 | 0.00 | 0.00 | 0.00 | 1 | 1011.9 |
| 20260503221043 | 58 | 217 | 8.7 | 14.8 | 0.00 | 0.00 | 0.00 | 1 | 1012.0 |
| 20260503220942 | 58 | 250 | 8.7 | 14.8 | 0.00 | 0.00 | 0.00 | 1 | 1011.9 |
| 20260503220844 | 58 | 227 | 8.7 | 14.8 | 0.00 | 0.00 | 0.00 | 1 | 1011.9 |
| 20260503220743 | 58 | 226 | 8.7 | 14.8 | 0.00 | 0.00 | 0.00 | 1 | 1012.0 |
| 20260503220643 | 58 | 222 | 8.7 | 14.8 | 0.00 | 0.00 | 0.00 | 1 | 1012.0 |
| 20260503220543 | 58 | 227 | 8.7 | 14.8 | 0.00 | 0.00 | 0.00 | 1 | 1011.9 |
| 20260503220443 | 58 | 202 | 8.7 | 13.9 | 0.00 | 0.00 | 0.00 | 1 | 1011.9 |
| 20260503220343 | 58 | 209 | 8.7 | 13.9 | 0.00 | 0.00 | 0.00 | 1 | 1011.9 |
| 20260503220242 | 58 | 237 | 9.6 | 13.9 | 0.00 | 0.00 | 0.00 | 1 | 1011.9 |
| 20260503220141 | 58 | 238 | 9.6 | 13.9 | 0.00 | 0.00 | 0.00 | 1 | 1011.9 |
| 20260503220041 | 58 | 218 | 8.7 | 13.9 | 0.00 | 0.00 | 0.00 | 1 | 1011.9 |
| 20260503215941 | 58 | 280 | 8.7 | 13.9 | 0.00 | 0.00 | 0.00 | 1 | 1011.9 |
| 20260503215840 | 58 | 246 | 8.7 | 13.9 | 0.00 | 0.00 | 0.00 | 1 | 1011.9 |
| 20260503215741 | 58 | 235 | 8.7 | 13.9 | 0.00 | 0.00 | 0.00 | 1 | 1011.9 |
| 20260503215641 | 58 | 238 | 8.7 | 13.9 | 0.00 | 0.00 | 0.00 | 1 | 1011.9 |
| 20260503215541 | 58 | 247 | 8.7 | 13.9 | 0.00 | 0.00 | 0.00 | 1 | 1011.9 |
| 20260503215441 | 58 | 242 | 7.8 | 14.8 | 0.00 | 0.00 | 0.00 | 1 | 1011.9 |
| 20260503215341 | 58 | 221 | 7.8 | 14.8 | 0.00 | 0.00 | 0.00 | 1 | 1011.9 |
| 20260503215241 | 58 | 219 | 7.8 | 14.8 | 0.00 | 0.00 | 0.00 | 1 | 1011.9 |
| 20260503215141 | 58 | 240 | 7.8 | 14.8 | 0.00 | 0.00 | 0.00 | 1 | 1011.9 |
| 20260503215041 | 58 | 231 | 7.8 | 14.8 | 0.00 | 0.00 | 0.00 | 1 | 1011.9 |
| 20260503214935 | 58 | 256 | 7.8 | 14.8 | 0.00 | 0.00 | 0.00 | 1 | 1011.9 |
| 20260503214835 | 58 | 269 | 7.8 | 14.8 | 0.00 | 0.00 | 0.00 | 1 | 1011.9 |
| 20260503214735 | 58 | 220 | 7.8 | 14.8 | 0.00 | 0.00 | 0.00 | 1 | 1011.9 |
| 20260503214635 | 58 | 230 | 7.8 | 14.8 | 0.00 | 0.00 | 0.00 | 1 | 1011.9 |
| 20260503214535 | 58 | 224 | 7.0 | 14.8 | 0.00 | 0.00 | 0.00 | 1 | 1011.9 |
| 20260503214448 | 58 | 254 | 7.0 | 13.0 | 0.00 | 0.00 | 0.00 | 1 | 1011.9 |
| 20260503214339 | 59 | 241 | 7.0 | 13.0 | 0.00 | 0.00 | 0.00 | 1 | 1011.9 |
| 20260503214135 | 59 | 230 | 7.8 | 13.9 | 0.00 | 0.00 | 0.00 | 1 | 1011.9 |
| 20260503214035 | 59 | 252 | 7.0 | 13.9 | 0.00 | 0.00 | 0.00 | 1 | 1011.9 |
| 20260503213943 | 59 | 271 | 7.8 | 13.9 | 0.00 | 0.00 | 0.00 | 1 | 1011.9 |
| 20260503213939 | 59 | 225 | 7.8 | 13.9 | 0.00 | 0.00 | 0.00 | 1 | 1011.8 |
| 20260503213729 | 59 | 276 | 7.8 | 13.9 | 0.00 | 0.00 | 0.00 | 1 | 1011.8 |
| 20260503213629 | 58 | 299 | 7.8 | 13.9 | 0.00 | 0.00 | 0.00 | 1 | 1011.8 |
| 20260503213529 | 58 | 280 | 7.8 | 13.9 | 0.00 | 0.00 | 0.00 | 1 | 1011.9 |
| 20260503213429 | 58 | 223 | 8.7 | 13.9 | 0.00 | 0.00 | 0.00 | 1 | 1011.9 |
| 20260503213328 | 58 | 216 | 8.7 | 13.9 | 0.00 | 0.00 | 0.00 | 1 | 1011.9 |
| 20260503213229 | 58 | 256 | 7.8 | 13.0 | 0.00 | 0.00 | 0.00 | 1 | 1011.9 |
| 20260503213129 | 59 | 257 | 7.8 | 13.0 | 0.00 | 0.00 | 0.00 | 1 | 1011.9 |
| 20260503213029 | 59 | 244 | 7.0 | 13.0 | 0.00 | 0.00 | 0.00 | 4 | 1012.0 |
| 20260503212929 | 59 | 241 | 7.0 | 13.0 | 0.00 | 0.00 | 0.00 | 4 | 1012.0 |
| 20260503212829 | 59 | 229 | 7.0 | 13.0 | 0.00 | 0.00 | 0.00 | 1 | 1012.0 |
| 20260503212728 | 59 | 240 | 7.0 | 13.0 | 0.00 | 0.00 | 0.00 | 2 | 1011.9 |
| 20260503212629 | 59 | 235 | 7.0 | 13.0 | 0.00 | 0.00 | 0.00 | 4 | 1011.9 |
| 20260503212525 | 59 | 222 | 7.0 | 12.2 | 0.00 | 0.00 | 0.00 | 4 | 1011.9 |
| 20260503212425 | 59 | 277 | 7.0 | 12.2 | 0.00 | 0.00 | 0.00 | 6 | 1011.9 |
| 20260503212324 | 59 | 252 | 6.1 | 12.2 | 0.00 | 0.00 | 0.00 | 4 | 1011.9 |
| 20260503212224 | 59 | 277 | 6.1 | 10.4 | 0.00 | 0.00 | 0.00 | 6 | 1011.9 |
| 20260503212124 | 59 | 193 | 6.1 | 10.4 | 0.00 | 0.00 | 0.00 | 10 | 1011.9 |
| 20260503212025 | 59 | 242 | 6.1 | 10.4 | 0.00 | 0.00 | 0.00 | 13 | 1011.9 |
| 20260503211925 | 60 | 213 | 6.1 | 10.4 | 0.00 | 0.00 | 0.00 | 13 | 1012.0 |
| 20260503211825 | 60 | 228 | 6.1 | 9.6 | 0.00 | 0.00 | 0.00 | 11 | 1011.9 |
| 20260503211725 | 60 | 280 | 6.1 | 9.6 | 0.00 | 0.00 | 0.00 | 11 | 1012.0 |
| 20260503211624 | 60 | 232 | 6.1 | 9.6 | 0.00 | 0.00 | 0.00 | 8 | 1011.9 |
| 20260503211525 | 60 | 215 | 6.1 | 9.6 | 0.00 | 0.00 | 0.00 | 7 | 1011.9 |
| 20260503211425 | 60 | 219 | 5.2 | 9.6 | 0.00 | 0.00 | 0.00 | 7 | 1011.9 |
| 20260503211325 | 60 | 201 | 5.2 | 9.6 | 0.00 | 0.00 | 0.00 | 5 | 1011.9 |
| 20260503211225 | 60 | 199 | 6.1 | 9.6 | 0.00 | 0.00 | 0.00 | 5 | 1012.0 |
| 20260503211125 | 59 | 243 | 5.2 | 9.6 | 0.00 | 0.00 | 0.00 | 8 | 1012.0 |
| 20260503211024 | 59 | 219 | 6.1 | 9.6 | 0.00 | 0.00 | 0.00 | 9 | 1012.0 |
| 20260503210925 | 59 | 196 | 6.1 | 9.6 | 0.00 | 0.00 | 0.00 | 10 | 1012.0 |
| 20260503210824 | 59 | 207 | 6.1 | 9.6 | 0.00 | 0.00 | 0.00 | 10 | 1012.0 |
| 20260503210729 | 59 | 167 | 6.1 | 11.3 | 0.00 | 0.00 | 0.00 | 9 | 1012.0 |
| 20260503210725 | 59 | 223 | 6.1 | 11.3 | 0.00 | 0.00 | 0.00 | 13 | 1012.0 |
| 20260503210521 | 59 | 210 | 6.1 | 11.3 | 0.00 | 0.00 | 0.00 | 9 | 1012.0 |
| 20260503210421 | 59 | 271 | 6.1 | 11.3 | 0.00 | 0.00 | 0.00 | 8 | 1012.0 |
| 20260503210321 | 59 | 237 | 6.1 | 11.3 | 0.00 | 0.00 | 0.00 | 7 | 1012.0 |
| 20260503210229 | 59 | 196 | 6.1 | 13.0 | 0.00 | 0.00 | 0.00 | 4 | 1012.0 |
| 20260503210225 | 59 | 224 | 6.1 | 12.2 | 0.00 | 0.00 | 0.00 | 6 | 1012.0 |
| 20260503210021 | 59 | 221 | 6.1 | 13.0 | 0.00 | 0.00 | 0.00 | 1 | 1011.9 |
| 20260503205921 | 59 | 159 | 7.0 | 13.0 | 0.00 | 0.00 | 0.00 | 1 | 1012.0 |
| 20260503205821 | 59 | 217 | 7.0 | 13.0 | 0.00 | 0.00 | 0.00 | 1 | 1011.9 |
| 20260503205720 | 59 | 244 | 7.0 | 13.0 | 0.00 | 0.00 | 0.00 | 1 | 1011.9 |
| 20260503205621 | 59 | 140 | 7.0 | 13.0 | 0.00 | 0.00 | 0.00 | 1 | 1011.9 |
| 20260503205521 | 59 | 240 | 7.0 | 13.9 | 0.00 | 0.00 | 0.00 | 1 | 1011.9 |
| 20260503205429 | 59 | 234 | 7.0 | 13.9 | 0.00 | 0.00 | 0.00 | 1 | 1011.9 |
| 20260503205425 | 59 | 205 | 7.0 | 13.9 | 0.00 | 0.00 | 0.00 | 1 | 1011.9 |
| 20260503205220 | 59 | 236 | 7.0 | 13.9 | 0.00 | 0.00 | 0.00 | 1 | 1011.9 |
| 20260503205129 | 58 | 251 | 7.8 | 13.9 | 0.00 | 0.00 | 0.00 | 1 | 1011.9 |
| 20260503205125 | 58 | 222 | 7.8 | 13.9 | 0.00 | 0.00 | 0.00 | 1 | 1011.9 |
| 20260503204920 | 58 | 234 | 7.8 | 13.9 | 0.00 | 0.00 | 0.00 | 1 | 1011.9 |
| 20260503204820 | 58 | 276 | 7.8 | 13.9 | 0.00 | 0.00 | 0.00 | 1 | 1011.9 |
| 20260503204717 | 58 | 265 | 7.8 | 13.9 | 0.00 | 0.00 | 0.00 | 1 | 1011.9 |
| 20260503204625 | 58 | 226 | 7.8 | 13.0 | 0.00 | 0.00 | 0.00 | 1 | 1012.0 |
| 20260503204621 | 58 | 242 | 7.8 | 13.9 | 0.00 | 0.00 | 0.00 | 1 | 1011.9 |
| 20260503204417 | 58 | 200 | 7.8 | 13.0 | 0.00 | 0.00 | 0.00 | 1 | 1012.0 |
| 20260503204316 | 59 | 234 | 7.8 | 13.0 | 0.00 | 0.00 | 0.00 | 1 | 1012.0 |
| 20260503204216 | 59 | 234 | 7.8 | 13.0 | 0.00 | 0.00 | 0.00 | 1 | 1011.9 |
| 20260503204116 | 59 | 233 | 7.8 | 13.0 | 0.00 | 0.00 | 0.00 | 1 | 1011.9 |
| 20260503204017 | 59 | 284 | 7.0 | 13.0 | 0.00 | 0.00 | 0.00 | 1 | 1012.0 |
| 20260503203917 | 59 | 221 | 7.0 | 11.3 | 0.00 | 0.00 | 0.00 | 1 | 1011.9 |
| 20260503203817 | 58 | 234 | 7.0 | 11.3 | 0.00 | 0.00 | 0.00 | 1 | 1011.9 |
| 20260503203725 | 59 | 249 | 6.1 | 11.3 | 0.00 | 0.00 | 0.00 | 1 | 1012.0 |
| 20260503203721 | 59 | 294 | 7.0 | 11.3 | 0.00 | 0.00 | 0.00 | 1 | 1011.9 |
| 20260503203517 | 59 | 226 | 6.1 | 11.3 | 0.00 | 0.00 | 0.00 | 1 | 1011.9 |
| 20260503203417 | 59 | 211 | 6.1 | 11.3 | 0.00 | 0.00 | 0.00 | 1 | 1011.9 |
| 20260503203317 | 59 | 238 | 6.1 | 11.3 | 0.00 | 0.00 | 0.00 | 2 | 1012.0 |
| 20260503203217 | 59 | 217 | 6.1 | 11.3 | 0.00 | 0.00 | 0.00 | 5 | 1012.0 |
| 20260503203117 | 59 | 244 | 6.1 | 11.3 | 0.00 | 0.00 | 0.00 | 1 | 1012.0 |
| 20260503203017 | 59 | 171 | 6.1 | 11.3 | 0.00 | 0.00 | 0.00 | 1 | 1012.0 |
| 20260503202917 | 59 | 221 | 7.0 | 11.3 | 0.00 | 0.00 | 0.00 | 1 | 1012.0 |
| 20260503202813 | 59 | 256 | 6.1 | 12.2 | 0.00 | 0.00 | 0.00 | 1 | 1012.0 |
| 20260503202713 | 59 | 226 | 6.1 | 12.2 | 0.00 | 0.00 | 0.00 | 1 | 1011.9 |
| 20260503202612 | 59 | 224 | 6.1 | 12.2 | 0.00 | 0.00 | 0.00 | 1 | 1012.0 |
| 20260503202513 | 59 | 221 | 6.1 | 12.2 | 0.00 | 0.00 | 0.00 | 1 | 1011.9 |
| 20260503202413 | 59 | 254 | 6.1 | 12.2 | 0.00 | 0.00 | 0.00 | 1 | 1012.0 |
| 20260503202313 | 59 | 263 | 6.1 | 12.2 | 0.00 | 0.00 | 0.00 | 1 | 1012.0 |
| 20260503202213 | 59 | 219 | 5.2 | 12.2 | 0.00 | 0.00 | 0.00 | 1 | 1012.0 |
| 20260503202112 | 59 | 225 | 5.2 | 12.2 | 0.00 | 0.00 | 0.00 | 1 | 1012.0 |
| 20260503202013 | 59 | 265 | 5.2 | 12.2 | 0.00 | 0.00 | 0.00 | 1 | 1012.0 |
| 20260503201913 | 59 | 246 | 5.2 | 12.2 | 0.00 | 0.00 | 0.00 | 1 | 1012.0 |
| 20260503201813 | 59 | 202 | 5.2 | 11.3 | 0.00 | 0.00 | 0.00 | 1 | 1012.0 |
| 20260503201713 | 59 | 207 | 5.2 | 13.0 | 0.00 | 0.00 | 0.00 | 1 | 1012.0 |
| 20260503201611 | 59 | 186 | 6.1 | 13.0 | 0.00 | 0.00 | 0.00 | 1 | 1012.1 |
| 20260503201510 | 58 | 205 | 6.1 | 13.0 | 0.00 | 0.00 | 0.00 | 1 | 1012.1 |
| 20260503201411 | 58 | 220 | 6.1 | 13.0 | 0.00 | 0.00 | 0.00 | 1 | 1012.1 |
| 20260503201311 | 58 | 184 | 7.0 | 13.0 | 0.00 | 0.00 | 0.00 | 1 | 1012.1 |
| 20260503201211 | 58 | 215 | 7.0 | 13.0 | 0.00 | 0.00 | 0.00 | 1 | 1012.1 |
| 20260503201111 | 58 | 199 | 7.0 | 13.0 | 0.00 | 0.00 | 0.00 | 1 | 1012.1 |
| 20260503201011 | 58 | 230 | 7.0 | 13.0 | 0.00 | 0.00 | 0.00 | 1 | 1012.1 |
| 20260503200911 | 58 | 170 | 7.8 | 13.0 | 0.00 | 0.00 | 0.00 | 1 | 1012.1 |
| 20260503200810 | 58 | 215 | 7.8 | 13.0 | 0.00 | 0.00 | 0.00 | 1 | 1012.1 |
| 20260503200710 | 58 | 225 | 7.8 | 13.0 | 0.00 | 0.00 | 0.00 | 1 | 1012.1 |
| 20260503200611 | 58 | 219 | 7.8 | 13.0 | 0.00 | 0.00 | 0.00 | 1 | 1012.1 |
| 20260503200517 | 58 | 194 | 7.8 | 13.0 | 0.00 | 0.00 | 0.00 | 1 | 1012.1 |
| 20260503200513 | 58 | 226 | 7.8 | 13.0 | 0.00 | 0.00 | 0.00 | 1 | 1012.2 |
| 20260503200309 | 58 | 212 | 8.7 | 13.0 | 0.00 | 0.00 | 0.00 | 1 | 1012.1 |
| 20260503200208 | 58 | 188 | 8.7 | 13.0 | 0.00 | 0.00 | 0.00 | 1 | 1012.1 |
| 20260503200108 | 58 | 254 | 8.7 | 13.0 | 0.00 | 0.00 | 0.00 | 1 | 1012.1 |
| 20260503200008 | 58 | 252 | 8.7 | 13.0 | 0.00 | 0.00 | 0.00 | 1 | 1012.1 |
| 20260503195908 | 58 | 230 | 8.7 | 13.0 | 0.00 | 0.00 | 0.00 | 1 | 1012.1 |
| 20260503195808 | 58 | 234 | 8.7 | 13.0 | 0.00 | 0.00 | 0.00 | 1 | 1012.1 |
| 20260503195716 | 58 | 245 | 7.8 | 12.2 | 0.00 | 0.00 | 0.00 | 1 | 1012.1 |
| 20260503195711 | 58 | 248 | 7.8 | 13.0 | 0.00 | 0.00 | 0.00 | 1 | 1012.1 |
| 20260503195515 | 58 | 238 | 7.0 | 12.2 | 0.00 | 0.00 | 0.00 | 1 | 1012.1 |
| 20260503195511 | 58 | 224 | 7.0 | 12.2 | 0.00 | 0.00 | 0.00 | 1 | 1012.1 |
| 20260503195307 | 58 | 234 | 7.0 | 12.2 | 0.00 | 0.00 | 0.00 | 1 | 1012.1 |
| 20260503195207 | 58 | 287 | 7.0 | 13.0 | 0.00 | 0.00 | 0.00 | 1 | 1012.1 |
| 20260503195107 | 58 | 246 | 7.0 | 13.0 | 0.00 | 0.00 | 0.00 | 1 | 1012.2 |
| 20260503195006 | 58 | 200 | 7.0 | 13.0 | 0.00 | 0.00 | 0.00 | 1 | 1012.1 |
| 20260503194906 | 58 | 263 | 7.0 | 13.0 | 0.00 | 0.00 | 0.00 | 1 | 1012.1 |
| 20260503194806 | 58 | 215 | 7.0 | 13.0 | 0.00 | 0.00 | 0.00 | 1 | 1012.1 |
| 20260503194701 | 58 | 199 | 7.0 | 13.0 | 0.00 | 0.00 | 0.00 | 1 | 1012.1 |
| 20260503194609 | 58 | 225 | 7.0 | 13.0 | 0.00 | 0.00 | 0.00 | 1 | 1012.2 |
| 20260503194605 | 58 | 193 | 7.0 | 13.0 | 0.00 | 0.00 | 0.00 | 1 | 1012.2 |
| 20260503194401 | 58 | 283 | 7.0 | 13.0 | 0.00 | 0.00 | 0.00 | 1 | 1012.2 |
| 20260503194300 | 58 | 229 | 7.0 | 13.0 | 0.00 | 0.00 | 0.00 | 1 | 1012.2 |
| 20260503194155 | 58 | 214 | 6.1 | 11.3 | 0.00 | 0.00 | 0.00 | 1 | 1012.3 |
| 20260503194055 | 58 | 225 | 6.1 | 11.3 | 0.00 | 0.00 | 0.00 | 1 | 1012.2 |
| 20260503193953 | 58 | 258 | 6.1 | 11.3 | 0.00 | 0.00 | 0.00 | 1 | 1012.2 |
| 20260503193853 | 58 | 215 | 6.1 | 11.3 | 0.00 | 0.00 | 0.00 | 1 | 1012.2 |
| 20260503193751 | 58 | 215 | 6.1 | 11.3 | 0.00 | 0.00 | 0.00 | 1 | 1012.2 |
| 20260503193645 | 58 | 202 | 6.1 | 11.3 | 0.00 | 0.00 | 0.00 | 1 | 1012.3 |
| 20260503193544 | 58 | 198 | 6.1 | 11.3 | 0.00 | 0.00 | 0.00 | 1 | 1012.2 |
| 20260503193444 | 58 | 190 | 6.1 | 11.3 | 0.00 | 0.00 | 0.00 | 1 | 1012.2 |
| 20260503193345 | 58 | 228 | 6.1 | 13.0 | 0.00 | 0.00 | 0.00 | 1 | 1012.2 |
| 20260503193244 | 58 | 259 | 6.1 | 13.0 | 0.00 | 0.00 | 0.00 | 1 | 1012.2 |
| 20260503193138 | 58 | 236 | 6.1 | 13.0 | 0.00 | 0.00 | 0.00 | 1 | 1012.2 |
| 20260503193048 | 58 | 215 | 6.1 | 13.0 | 0.00 | 0.00 | 0.00 | 1 | 1012.3 |
| 20260503193043 | 58 | 215 | 6.1 | 13.0 | 0.00 | 0.00 | 0.00 | 1 | 1012.2 |
| 20260503192846 | 58 | 159 | 6.1 | 13.0 | 0.00 | 0.00 | 0.00 | 1 | 1012.3 |
| 20260503192738 | 58 | 238 | 6.1 | 13.0 | 0.00 | 0.00 | 0.00 | 1 | 1012.3 |
| 20260503192632 | 58 | 236 | 6.1 | 13.0 | 0.00 | 0.00 | 0.00 | 1 | 1012.3 |
| 20260503192532 | 58 | 207 | 6.1 | 13.0 | 0.00 | 0.00 | 0.00 | 1 | 1012.3 |
| 20260503192440 | 58 | 190 | 6.1 | 12.2 | 0.00 | 0.00 | 0.00 | 1 | 1012.2 |
| 20260503192436 | 58 | 223 | 6.1 | 13.0 | 0.00 | 0.00 | 0.00 | 1 | 1012.2 |
| 20260503192232 | 58 | 212 | 6.1 | 12.2 | 0.00 | 0.00 | 0.00 | 1 | 1012.2 |
| 20260503192133 | 58 | 210 | 7.0 | 12.2 | 0.00 | 0.00 | 0.00 | 1 | 1012.2 |
| 20260503192129 | 58 | 198 | 6.1 | 12.2 | 0.00 | 0.00 | 0.00 | 1 | 1012.2 |
| 20260503191924 | 58 | 219 | 7.0 | 12.2 | 0.00 | 0.00 | 0.00 | 1 | 1012.2 |
| 20260503191824 | 58 | 194 | 7.0 | 12.2 | 0.00 | 0.00 | 0.00 | 1 | 1012.2 |
| 20260503191724 | 58 | 205 | 7.0 | 12.2 | 0.00 | 0.00 | 0.00 | 1 | 1012.2 |
| 20260503191618 | 58 | 223 | 6.1 | 11.3 | 0.00 | 0.00 | 0.00 | 1 | 1012.2 |
| 20260503191518 | 58 | 227 | 6.1 | 10.4 | 0.00 | 0.00 | 0.00 | 1 | 1012.2 |
| 20260503191419 | 58 | 219 | 6.1 | 10.4 | 0.00 | 0.00 | 0.00 | 1 | 1012.3 |
| 20260503191319 | 58 | 209 | 6.1 | 11.3 | 0.00 | 0.00 | 0.00 | 1 | 1012.3 |
| 20260503191216 | 58 | 239 | 6.1 | 11.3 | 0.00 | 0.00 | 0.00 | 1 | 1012.3 |
| 20260503191111 | 58 | 194 | 6.1 | 11.3 | 0.00 | 0.00 | 0.00 | 1 | 1012.3 |
| 20260503191011 | 58 | 265 | 7.0 | 11.3 | 0.00 | 0.00 | 0.00 | 5 | 1012.3 |
| 20260503190910 | 59 | 223 | 7.0 | 11.3 | 0.00 | 0.00 | 0.00 | 3 | 1012.3 |
| 20260503190810 | 59 | 247 | 6.1 | 11.3 | 0.00 | 0.00 | 0.00 | 1 | 1012.3 |
| 20260503190710 | 59 | 190 | 6.1 | 11.3 | 0.00 | 0.00 | 0.00 | 1 | 1012.3 |
| 20260503190611 | 59 | 246 | 6.1 | 11.3 | 0.00 | 0.00 | 0.00 | 1 | 1012.3 |
| 20260503190511 | 59 | 215 | 6.1 | 11.3 | 0.00 | 0.00 | 0.00 | 4 | 1012.3 |
| 20260503190411 | 59 | 198 | 6.1 | 11.3 | 0.00 | 0.00 | 0.00 | 4 | 1012.2 |
| 20260503190310 | 59 | 239 | 6.1 | 11.3 | 0.00 | 0.00 | 0.00 | 2 | 1012.2 |
| 20260503190210 | 59 | 254 | 6.1 | 11.3 | 0.00 | 0.00 | 0.00 | 2 | 1012.2 |
| 20260503190110 | 59 | 265 | 6.1 | 11.3 | 0.00 | 0.00 | 0.00 | 6 | 1012.2 |
| 20260503190016 | 59 | 185 | 5.2 | 10.4 | 0.00 | 0.00 | 0.00 | 2 | 1012.2 |
| 20260503190012 | 59 | 254 | 5.2 | 11.3 | 0.00 | 0.00 | 0.00 | 5 | 1012.2 |
| 20260503185808 | 59 | 225 | 5.2 | 9.6 | 0.00 | 0.00 | 0.00 | 5 | 1012.2 |
| 20260503185707 | 59 | 142 | 5.2 | 9.6 | 0.00 | 0.00 | 0.00 | 4 | 1012.2 |
| 20260503185606 | 59 | 144 | 5.2 | 9.6 | 0.00 | 0.00 | 0.00 | 1 | 1012.2 |
| 20260503185505 | 59 | 165 | 5.2 | 9.6 | 0.00 | 0.00 | 0.00 | 1 | 1012.2 |
| 20260503185405 | 59 | 261 | 5.2 | 9.6 | 0.00 | 0.00 | 0.00 | 1 | 1012.2 |
| 20260503185305 | 59 | 253 | 5.2 | 9.6 | 0.00 | 0.00 | 0.00 | 1 | 1012.2 |
| 20260503185205 | 58 | 224 | 5.2 | 8.7 | 0.00 | 0.00 | 0.00 | 1 | 1012.2 |
| 20260503185104 | 58 | 225 | 5.2 | 8.7 | 0.00 | 0.00 | 0.00 | 1 | 1012.2 |
| 20260503185004 | 58 | 201 | 6.1 | 10.4 | 0.00 | 0.00 | 0.00 | 1 | 1012.2 |
| 20260503184859 | 58 | 213 | 6.1 | 10.4 | 0.00 | 0.00 | 0.00 | 1 | 1012.2 |
| 20260503184759 | 58 | 212 | 6.1 | 10.4 | 0.00 | 0.00 | 0.00 | 1 | 1012.2 |
| 20260503184658 | 58 | 196 | 6.1 | 10.4 | 0.00 | 0.00 | 0.00 | 1 | 1012.2 |
| 20260503184558 | 58 | 213 | 6.1 | 10.4 | 0.00 | 0.00 | 0.00 | 1 | 1012.2 |
| 20260503184457 | 58 | 140 | 6.1 | 10.4 | 0.00 | 0.00 | 0.00 | 1 | 1012.2 |
| 20260503184351 | 58 | 248 | 6.1 | 10.4 | 0.00 | 0.00 | 0.00 | 1 | 1012.2 |
| 20260503184251 | 58 | 236 | 6.1 | 10.4 | 0.00 | 0.00 | 0.00 | 1 | 1012.2 |
| 20260503184150 | 58 | 243 | 6.1 | 10.4 | 0.00 | 0.00 | 0.00 | 1 | 1012.1 |
| 20260503184050 | 58 | 228 | 6.1 | 10.4 | 0.00 | 0.00 | 0.00 | 1 | 1012.1 |
| 20260503183950 | 58 | 266 | 5.2 | 8.7 | 0.00 | 0.00 | 0.00 | 1 | 1012.1 |
| 20260503183845 | 58 | 186 | 5.2 | 8.7 | 0.00 | 0.00 | 0.00 | 1 | 1012.2 |
| 20260503183753 | 58 | 195 | 5.2 | 9.6 | 0.00 | 0.00 | 0.00 | 1 | 1012.1 |
| 20260503183748 | 58 | 210 | 5.2 | 8.7 | 0.00 | 0.00 | 0.00 | 1 | 1012.2 |
| 20260503183447 | 58 | 194 | 5.2 | 9.6 | 0.00 | 0.00 | 0.00 | 1 | 1012.1 |
| 20260503183443 | 58 | 169 | 5.2 | 9.6 | 0.00 | 0.00 | 0.00 | 1 | 1012.1 |
| 20260503183239 | 58 | 197 | 5.2 | 9.6 | 0.00 | 0.00 | 0.00 | 1 | 1012.1 |
| 20260503183138 | 58 | 198 | 5.2 | 9.6 | 0.00 | 0.00 | 0.00 | 1 | 1012.1 |
| 20260503183038 | 58 | 221 | 5.2 | 9.6 | 0.00 | 0.00 | 0.00 | 1 | 1012.1 |
| 20260503182938 | 58 | 227 | 5.2 | 9.6 | 0.00 | 0.00 | 0.00 | 1 | 1012.1 |
| 20260503182832 | 58 | 219 | 5.2 | 9.6 | 0.00 | 0.00 | 0.00 | 1 | 1012.1 |
| 20260503182732 | 58 | 197 | 5.2 | 9.6 | 0.00 | 0.00 | 0.00 | 1 | 1012.1 |
| 20260503182632 | 58 | 232 | 5.2 | 9.6 | 0.00 | 0.00 | 0.00 | 1 | 1012.1 |
| 20260503182533 | 58 | 226 | 5.2 | 9.6 | 0.00 | 0.00 | 0.00 | 1 | 1012.1 |
| 20260503182432 | 58 | 250 | 5.2 | 9.6 | 0.00 | 0.00 | 0.00 | 1 | 1012.1 |
| 20260503182326 | 58 | 228 | 5.2 | 8.7 | 0.00 | 0.00 | 0.00 | 1 | 1012.1 |
| 20260503182227 | 58 | 225 | 4.3 | 8.7 | 0.00 | 0.00 | 0.00 | 1 | 1012.1 |
| 20260503182127 | 58 | 259 | 5.2 | 8.7 | 0.00 | 0.00 | 0.00 | 1 | 1012.1 |
| 20260503182026 | 58 | 277 | 4.3 | 8.7 | 0.00 | 0.00 | 0.00 | 1 | 1012.2 |
| 20260503181929 | 58 | 198 | 4.3 | 7.8 | 0.00 | 0.00 | 0.00 | 1 | 1012.2 |
| 20260503181924 | 58 | 227 | 5.2 | 7.8 | 0.00 | 0.00 | 0.00 | 1 | 1012.1 |
| 20260503181720 | 58 | 185 | 5.2 | 8.7 | 0.00 | 0.00 | 0.00 | 1 | 1012.2 |
| 20260503181621 | 57 | 207 | 5.2 | 8.7 | 0.00 | 0.00 | 0.00 | 1 | 1012.1 |
| 20260503181520 | 57 | 186 | 5.2 | 8.7 | 0.00 | 0.00 | 0.00 | 1 | 1012.1 |
| 20260503181420 | 57 | 230 | 5.2 | 8.7 | 0.00 | 0.00 | 0.00 | 1 | 1012.1 |
| 20260503181214 | 56 | 200 | 5.2 | 8.7 | 0.00 | 0.00 | 0.00 | 1 | 1012.1 |
| 20260503181114 | 56 | 250 | 5.2 | 9.6 | 0.00 | 0.00 | 0.00 | 1 | 1012.0 |
| 20260503181014 | 56 | 262 | 5.2 | 9.6 | 0.00 | 0.00 | 0.00 | 1 | 1012.0 |
| 20260503180914 | 56 | 249 | 5.2 | 9.6 | 0.00 | 0.00 | 0.00 | 1 | 1012.0 |
| 20260503180808 | 56 | 237 | 5.2 | 9.6 | 0.00 | 0.00 | 0.00 | 1 | 1012.0 |
| 20260503180708 | 56 | 242 | 5.2 | 9.6 | 0.00 | 0.00 | 0.00 | 1 | 1012.1 |
| 20260503180608 | 56 | 246 | 5.2 | 9.6 | 0.00 | 0.00 | 0.00 | 1 | 1012.1 |
| 20260503180517 | 56 | 248 | 5.2 | 9.6 | 0.00 | 0.00 | 0.00 | 1 | 1012.0 |
| 20260503180409 | 56 | 248 | 5.2 | 9.6 | 0.00 | 0.00 | 0.00 | 1 | 1012.0 |
| 20260503180205 | 56 | 254 | 5.2 | 9.6 | 0.00 | 0.00 | 0.00 | 1 | 1012.0 |
| 20260503180104 | 56 | 226 | 5.2 | 8.7 | 0.00 | 0.00 | 0.00 | 1 | 1012.0 |
| 20260503180005 | 57 | 239 | 5.2 | 8.7 | 0.00 | 0.00 | 0.00 | 1 | 1012.0 |
| 20260503175902 | 57 | 263 | 5.2 | 8.7 | 0.00 | 0.00 | 0.00 | 1 | 1012.0 |
| 20260503175756 | 57 | 282 | 5.2 | 8.7 | 0.00 | 0.00 | 0.00 | 1 | 1012.0 |
| 20260503175656 | 57 | 269 | 5.2 | 8.7 | 0.00 | 0.00 | 0.00 | 1 | 1012.0 |
| 20260503175556 | 57 | 283 | 5.2 | 8.7 | 0.00 | 0.00 | 0.00 | 1 | 1012.0 |
| 20260503175457 | 57 | 246 | 5.2 | 8.7 | 0.00 | 0.00 | 0.00 | 1 | 1012.0 |
| 20260503175356 | 56 | 250 | 5.2 | 7.8 | 0.00 | 0.00 | 0.00 | 1 | 1012.0 |
| 20260503175250 | 56 | 275 | 5.2 | 9.6 | 0.00 | 0.00 | 0.00 | 1 | 1012.0 |
| 20260503175158 | 56 | 311 | 5.2 | 9.6 | 0.00 | 0.00 | 0.00 | 1 | 1012.1 |
| 20260503175154 | 56 | 259 | 5.2 | 9.6 | 0.00 | 0.00 | 0.00 | 1 | 1012.0 |
| 20260503174958 | 56 | 230 | 6.1 | 9.6 | 0.00 | 0.00 | 0.00 | 1 | 1012.0 |
| 20260503174954 | 56 | 276 | 5.2 | 9.6 | 0.00 | 0.00 | 0.00 | 1 | 1012.0 |
| 20260503174801 | 56 | 231 | 5.2 | 9.6 | 0.00 | 0.00 | 0.00 | 1 | 1012.0 |
| 20260503174757 | 56 | 267 | 5.2 | 9.6 | 0.00 | 0.00 | 0.00 | 1 | 1012.0 |
| 20260503174752 | 56 | 237 | 6.1 | 9.6 | 0.00 | 0.00 | 0.00 | 1 | 1012.0 |
| 20260503174456 | 55 | 299 | 5.2 | 9.6 | 0.00 | 0.00 | 0.00 | 1 | 1012.0 |
| 20260503174451 | 55 | 272 | 5.2 | 9.6 | 0.00 | 0.00 | 0.00 | 1 | 1012.0 |
| 20260503174343 | 55 | 267 | 5.2 | 8.7 | 0.00 | 0.00 | 0.00 | 1 | 1012.0 |
| 20260503174138 | 55 | 293 | 5.2 | 8.7 | 0.00 | 0.00 | 0.00 | 1 | 1012.0 |
| 20260503174038 | 55 | 289 | 5.2 | 9.6 | 0.00 | 0.00 | 0.00 | 1 | 1012.0 |
| 20260503173938 | 55 | 289 | 5.2 | 9.6 | 0.00 | 0.00 | 0.00 | 1 | 1012.1 |
| 20260503173838 | 55 | 267 | 6.1 | 9.6 | 0.00 | 0.00 | 0.00 | 1 | 1012.1 |
| 20260503173732 | 55 | 286 | 6.1 | 9.6 | 0.00 | 0.00 | 0.00 | 1 | 1012.1 |
| 20260503173633 | 55 | 263 | 6.1 | 9.6 | 0.00 | 0.00 | 0.00 | 1 | 1012.1 |
| 20260503173532 | 55 | 258 | 6.1 | 9.6 | 0.00 | 0.00 | 0.00 | 1 | 1012.1 |
| 20260503173447 | 55 | 230 | 6.1 | 9.6 | 0.00 | 0.00 | 0.00 | 1 | 1012.2 |
| 20260503173443 | 55 | 217 | 6.1 | 9.6 | 0.00 | 0.00 | 0.00 | 1 | 1012.1 |
| 20260503173335 | 55 | 289 | 6.1 | 9.6 | 0.00 | 0.00 | 0.00 | 1 | 1012.1 |
| 20260503173026 | 56 | 239 | 6.1 | 9.6 | 0.00 | 0.00 | 0.00 | 1 | 1012.1 |
| 20260503172934 | 56 | 222 | 5.2 | 9.6 | 0.00 | 0.00 | 0.00 | 1 | 1012.0 |
| 20260503172930 | 56 | 273 | 6.1 | 9.6 | 0.00 | 0.00 | 0.00 | 1 | 1012.1 |
| 20260503172720 | 56 | 244 | 5.2 | 9.6 | 0.00 | 0.00 | 0.00 | 1 | 1012.0 |
| 20260503172620 | 56 | 234 | 5.2 | 9.6 | 0.00 | 0.00 | 0.00 | 1 | 1012.1 |
| 20260503172520 | 56 | 198 | 6.1 | 9.6 | 0.00 | 0.00 | 0.00 | 1 | 1012.0 |
| 20260503172420 | 56 | 253 | 6.1 | 10.4 | 0.00 | 0.00 | 0.00 | 1 | 1012.0 |
| 20260503172320 | 56 | 225 | 6.1 | 10.4 | 0.00 | 0.00 | 0.00 | 1 | 1012.1 |
| 20260503172217 | 56 | 208 | 6.1 | 10.4 | 0.00 | 0.00 | 0.00 | 1 | 1012.1 |
| 20260503172117 | 56 | 245 | 6.1 | 10.4 | 0.00 | 0.00 | 0.00 | 1 | 1012.0 |
| 20260503172016 | 56 | 246 | 6.1 | 10.4 | 0.00 | 0.00 | 0.00 | 1 | 1012.0 |
| 20260503171916 | 56 | 215 | 6.1 | 10.4 | 0.00 | 0.00 | 0.00 | 1 | 1012.0 |
| 20260503171814 | 56 | 195 | 6.1 | 10.4 | 0.00 | 0.00 | 0.00 | 1 | 1012.1 |
| 20260503171711 | 56 | 215 | 7.0 | 10.4 | 0.00 | 0.00 | 0.00 | 1 | 1012.0 |
| 20260503171611 | 56 | 257 | 7.0 | 10.4 | 0.00 | 0.00 | 0.00 | 1 | 1012.1 |
| 20260503171510 | 56 | 252 | 6.1 | 10.4 | 0.00 | 0.00 | 0.00 | 1 | 1012.0 |
| 20260503171410 | 56 | 238 | 6.1 | 10.4 | 0.00 | 0.00 | 0.00 | 1 | 1012.0 |
| 20260503171308 | 56 | 230 | 6.1 | 10.4 | 0.00 | 0.00 | 0.00 | 1 | 1012.0 |
| 20260503171203 | 56 | 240 | 6.1 | 10.4 | 0.00 | 0.00 | 0.00 | 1 | 1012.0 |
| 20260503171102 | 56 | 247 | 5.2 | 10.4 | 0.00 | 0.00 | 0.00 | 1 | 1012.0 |
| 20260503171002 | 56 | 269 | 5.2 | 10.4 | 0.00 | 0.00 | 0.00 | 1 | 1012.0 |
| 20260503170902 | 56 | 257 | 5.2 | 10.4 | 0.00 | 0.00 | 0.00 | 1 | 1012.0 |
| 20260503170802 | 56 | 234 | 5.2 | 10.4 | 0.00 | 0.00 | 0.00 | 1 | 1012.0 |
| 20260503170656 | 56 | 0 | 5.2 | 10.4 | 0.00 | 0.00 | 0.00 | 1 | 1012.0 |
| 20260503170604 | 56 | 204 | 5.2 | 8.7 | 0.00 | 0.00 | 0.00 | 1 | 1012.0 |
| 20260503170600 | 56 | 224 | 5.2 | 8.7 | 0.00 | 0.00 | 0.00 | 1 | 1012.1 |
| 20260503170356 | 56 | 221 | 5.2 | 8.7 | 0.00 | 0.00 | 0.00 | 1 | 1012.0 |
| 20260503170256 | 56 | 232 | 5.2 | 8.7 | 0.00 | 0.00 | 0.00 | 1 | 1012.0 |
| 20260503170151 | 56 | 220 | 5.2 | 8.7 | 0.00 | 0.00 | 0.00 | 1 | 1012.0 |
| 20260503160144 | 55 | 213 | 4.3 | 7.8 | 0.00 | 0.00 | 0.00 | 1 | 1011.8 |
| 20260503151013 | 54 | 192 | 0.9 | 2.6 | 0.00 | 0.00 | 0.00 | 1 | 1011.4 |
| 20260503151009 | 54 | 192 | 1.7 | 2.6 | 0.00 | 0.00 | 0.00 | 1 | 1011.3 |
| 20260503150804 | 54 | 192 | 0.9 | 2.6 | 0.00 | 0.00 | 0.00 | 1 | 1011.4 |
| 20260503150704 | 54 | 192 | 1.7 | 2.6 | 0.00 | 0.00 | 0.00 | 1 | 1011.3 |
| 20260503150602 | 54 | 192 | 1.7 | 3.5 | 0.00 | 0.00 | 0.00 | 1 | 1011.3 |
| 20260503150502 | 54 | 192 | 1.7 | 3.5 | 0.00 | 0.00 | 0.00 | 1 | 1011.3 |
| 20260503150401 | 54 | 196 | 0.9 | 3.5 | 0.00 | 0.00 | 0.00 | 1 | 1011.3 |
| 20260503150302 | 54 | 196 | 0.9 | 3.5 | 0.00 | 0.00 | 0.00 | 1 | 1011.3 |
| 20260503150200 | 54 | 196 | 0.9 | 3.5 | 0.00 | 0.00 | 0.00 | 1 | 1011.3 |
| 20260503140251 | 54 | 239 | 5.2 | 8.7 | 0.00 | 0.00 | 0.00 | 1 | 1010.5 |
| 20260503140151 | 54 | 219 | 5.2 | 8.7 | 0.00 | 0.00 | 0.00 | 1 | 1010.5 |
| 20260503131321 | 54 | 244 | 5.2 | 8.7 | 0.00 | 0.00 | 0.00 | 1 | 1009.8 |
| 20260503131218 | 54 | 247 | 4.3 | 8.7 | 0.00 | 0.00 | 0.00 | 1 | 1009.9 |
| 20260503131115 | 54 | 244 | 4.3 | 8.7 | 0.00 | 0.00 | 0.00 | 1 | 1009.8 |
| 20260503131016 | 54 | 240 | 4.3 | 7.0 | 0.00 | 0.00 | 0.00 | 1 | 1009.8 |
| 20260503130916 | 54 | 244 | 4.3 | 7.0 | 0.00 | 0.00 | 0.00 | 1 | 1009.7 |
| 20260503130716 | 54 | 271 | 4.3 | 7.0 | 0.00 | 0.00 | 0.00 | 1 | 1009.8 |
| 20260503130711 | 54 | 252 | 3.5 | 7.0 | 0.00 | 0.00 | 0.00 | 1 | 1009.8 |
| 20260503130517 | 54 | 250 | 3.5 | 7.0 | 0.00 | 0.00 | 0.00 | 1 | 1009.8 |
| 20260503130512 | 54 | 243 | 3.5 | 7.0 | 0.00 | 0.00 | 0.00 | 1 | 1009.8 |
| 20260503130307 | 54 | 245 | 3.5 | 7.0 | 0.00 | 0.00 | 0.00 | 1 | 1009.9 |
| 20260503130207 | 54 | 243 | 3.5 | 7.0 | 0.00 | 0.00 | 0.00 | 1 | 1009.9 |
| 20260503130106 | 54 | 234 | 3.5 | 7.0 | 0.00 | 0.00 | 0.00 | 1 | 1009.9 |
| 20260503120205 | 54 | 272 | 3.5 | 7.0 | 0.00 | 0.00 | 0.00 | 1 | 1009.8 |
| 20260503110758 | 53 | 245 | 4.3 | 7.8 | 0.00 | 0.00 | 0.00 | 1 | 1009.8 |
| 20260503110658 | 53 | 236 | 4.3 | 7.8 | 0.00 | 0.00 | 0.00 | 1 | 1009.9 |
| 20260503110558 | 53 | 284 | 4.3 | 7.8 | 0.00 | 0.00 | 0.00 | 1 | 1009.8 |
| 20260503110458 | 53 | 273 | 4.3 | 7.8 | 0.00 | 0.00 | 0.00 | 1 | 1009.9 |
| 20260503110355 | 53 | 234 | 4.3 | 7.8 | 0.00 | 0.00 | 0.00 | 1 | 1009.8 |
| 20260503110251 | 53 | 278 | 4.3 | 7.8 | 0.00 | 0.00 | 0.00 | 1 | 1009.9 |
| 20260503110150 | 53 | 275 | 4.3 | 7.8 | 0.00 | 0.00 | 0.00 | 1 | 1009.9 |
| 20260503100238 | 53 | 273 | 4.3 | 10.4 | 0.00 | 0.00 | 0.00 | 1 | 1009.8 |
| 20260503100135 | 53 | 259 | 5.2 | 10.4 | 0.00 | 0.00 | 0.00 | 1 | 1009.8 |
| 20260503090445 | 53 | 292 | 6.1 | 11.3 | 0.00 | 0.00 | 0.00 | 1 | 1010.2 |
| 20260503090441 | 53 | 256 | 6.1 | 11.3 | 0.00 | 0.00 | 0.00 | 1 | 1010.1 |
| 20260503090238 | 53 | 266 | 6.1 | 11.3 | 0.00 | 0.00 | 0.00 | 1 | 1010.2 |
| 20260503090137 | 53 | 271 | 6.1 | 11.3 | 0.00 | 0.00 | 0.00 | 1 | 1010.2 |
| 20260503081623 | 53 | 261 | 5.2 | 10.4 | 0.00 | 0.00 | 0.00 | 1 | 1010.7 |
| 20260503081515 | 53 | 261 | 4.3 | 10.4 | 0.00 | 0.00 | 0.00 | 1 | 1010.7 |
| 20260503081319 | 53 | 269 | 5.2 | 9.6 | 0.00 | 0.00 | 0.00 | 1 | 1010.8 |
| 20260503081315 | 53 | 257 | 4.3 | 10.4 | 0.00 | 0.00 | 0.00 | 1 | 1010.8 |
| 20260503081111 | 53 | 259 | 5.2 | 9.6 | 0.00 | 0.00 | 0.00 | 1 | 1010.9 |
| 20260503081011 | 53 | 271 | 5.2 | 9.6 | 0.00 | 0.00 | 0.00 | 1 | 1010.9 |
| 20260503080911 | 53 | 285 | 5.2 | 9.6 | 0.00 | 0.00 | 0.00 | 1 | 1010.8 |
| 20260503080811 | 53 | 277 | 6.1 | 10.4 | 0.00 | 0.00 | 0.00 | 1 | 1010.8 |
| 20260503080710 | 53 | 309 | 6.1 | 10.4 | 0.00 | 0.00 | 0.00 | 1 | 1010.8 |
| 20260503080611 | 53 | 263 | 6.1 | 10.4 | 0.00 | 0.00 | 0.00 | 1 | 1010.7 |
| 20260503080509 | 53 | 254 | 6.1 | 10.4 | 0.00 | 0.00 | 0.00 | 1 | 1010.7 |
| 20260503080409 | 53 | 275 | 6.1 | 10.4 | 0.00 | 0.00 | 0.00 | 1 | 1010.8 |
| 20260503080308 | 53 | 273 | 6.1 | 11.3 | 0.00 | 0.00 | 0.00 | 1 | 1010.7 |
| 20260503080209 | 53 | 294 | 6.1 | 11.3 | 0.00 | 0.00 | 0.00 | 1 | 1010.7 |
| 20260503080109 | 53 | 273 | 6.1 | 11.3 | 0.00 | 0.00 | 0.00 | 1 | 1010.7 |
| 20260503072801 | 53 | 270 | 5.2 | 8.7 | 0.00 | 0.00 | 0.00 | 1 | 1010.6 |
| 20260503072701 | 53 | 287 | 5.2 | 11.3 | 0.00 | 0.00 | 0.00 | 1 | 1010.7 |
| 20260503072600 | 53 | 279 | 5.2 | 11.3 | 0.00 | 0.00 | 0.00 | 1 | 1010.6 |
| 20260503072500 | 53 | 279 | 5.2 | 11.3 | 0.00 | 0.00 | 0.00 | 1 | 1010.6 |
| 20260503072401 | 53 | 285 | 5.2 | 11.3 | 0.00 | 0.00 | 0.00 | 1 | 1010.6 |
| 20260503072301 | 53 | 272 | 5.2 | 11.3 | 0.00 | 0.00 | 0.00 | 1 | 1010.6 |
| 20260503072201 | 53 | 264 | 5.2 | 11.3 | 0.00 | 0.00 | 0.00 | 1 | 1010.6 |
| 20260503072101 | 53 | 263 | 5.2 | 11.3 | 0.00 | 0.00 | 0.00 | 1 | 1010.7 |
| 20260503072000 | 53 | 281 | 5.2 | 11.3 | 0.00 | 0.00 | 0.00 | 1 | 1010.7 |
| 20260503071901 | 53 | 281 | 4.3 | 11.3 | 0.00 | 0.00 | 0.00 | 1 | 1010.7 |
| 20260503071800 | 53 | 263 | 4.3 | 11.3 | 0.00 | 0.00 | 0.00 | 1 | 1010.7 |
| 20260503071700 | 53 | 261 | 4.3 | 10.4 | 0.00 | 0.00 | 0.00 | 1 | 1010.7 |
| 20260503071601 | 53 | 266 | 4.3 | 9.6 | 0.00 | 0.00 | 0.00 | 1 | 1010.7 |
| 20260503071501 | 53 | 287 | 4.3 | 9.6 | 0.00 | 0.00 | 0.00 | 1 | 1010.7 |
| 20260503071401 | 53 | 275 | 5.2 | 9.6 | 0.00 | 0.00 | 0.00 | 1 | 1010.7 |
| 20260503071301 | 53 | 285 | 5.2 | 8.7 | 0.00 | 0.00 | 0.00 | 1 | 1010.7 |
| 20260503071209 | 53 | 287 | 5.2 | 8.7 | 0.00 | 0.00 | 0.00 | 1 | 1010.7 |
| 20260503071101 | 53 | 278 | 5.2 | 8.7 | 0.00 | 0.00 | 0.00 | 1 | 1010.7 |
| 20260503070856 | 53 | 267 | 5.2 | 8.7 | 0.00 | 0.00 | 0.00 | 1 | 1010.7 |
| 20260503070756 | 53 | 276 | 5.2 | 8.7 | 0.00 | 0.00 | 0.00 | 1 | 1010.7 |
| 20260503070656 | 53 | 270 | 5.2 | 8.7 | 0.00 | 0.00 | 0.00 | 1 | 1010.7 |
| 20260503070605 | 53 | 265 | 5.2 | 8.7 | 0.00 | 0.00 | 0.00 | 1 | 1010.7 |
| 20260503070601 | 53 | 272 | 5.2 | 8.7 | 0.00 | 0.00 | 0.00 | 1 | 1010.7 |
| 20260503070356 | 53 | 289 | 5.2 | 8.7 | 0.00 | 0.00 | 0.00 | 1 | 1010.7 |
| 20260503070256 | 53 | 277 | 4.3 | 8.7 | 0.00 | 0.00 | 0.00 | 1 | 1010.7 |
| 20260503070156 | 53 | 273 | 4.3 | 8.7 | 0.00 | 0.00 | 0.00 | 1 | 1010.7 |
| 20260503060327 | 54 | 242 | 4.3 | 8.7 | 0.00 | 0.00 | 0.00 | 1 | 1010.9 |
| 20260503060228 | 54 | 292 | 5.2 | 8.7 | 0.00 | 0.00 | 0.00 | 1 | 1010.8 |
| 20260503060124 | 54 | 274 | 5.2 | 8.7 | 0.00 | 0.00 | 0.00 | 1 | 1010.9 |
| 20260503055121 | 54 | 290 | 6.1 | 8.7 | 0.00 | 0.00 | 0.00 | 1 | 1011.0 |
| 20260503055021 | 54 | 281 | 5.2 | 8.7 | 0.00 | 0.00 | 0.00 | 1 | 1011.0 |
| 20260503054918 | 54 | 255 | 5.2 | 8.7 | 0.00 | 0.00 | 0.00 | 1 | 1011.0 |
| 20260503054818 | 54 | 273 | 5.2 | 10.4 | 0.00 | 0.00 | 0.00 | 1 | 1011.1 |
| 20260503054718 | 54 | 261 | 6.1 | 10.4 | 0.00 | 0.00 | 0.00 | 1 | 1011.1 |
| 20260503054618 | 54 | 301 | 5.2 | 10.4 | 0.00 | 0.00 | 0.00 | 1 | 1011.1 |
| 20260503054518 | 54 | 277 | 5.2 | 10.4 | 0.00 | 0.00 | 0.00 | 1 | 1011.1 |
| 20260503054418 | 54 | 244 | 5.2 | 10.4 | 0.00 | 0.00 | 0.00 | 1 | 1011.1 |
| 20260503054318 | 54 | 254 | 4.3 | 10.4 | 0.00 | 0.00 | 0.00 | 1 | 1011.1 |
| 20260503054218 | 54 | 240 | 4.3 | 10.4 | 0.00 | 0.00 | 0.00 | 1 | 1011.1 |
| 20260503054118 | 54 | 230 | 4.3 | 10.4 | 0.00 | 0.00 | 0.00 | 1 | 1011.1 |
| 20260503054018 | 54 | 231 | 4.3 | 10.4 | 0.00 | 0.00 | 0.00 | 1 | 1011.1 |
| 20260503053918 | 54 | 274 | 4.3 | 10.4 | 0.00 | 0.00 | 0.00 | 1 | 1011.2 |
| 20260503053818 | 54 | 251 | 4.3 | 8.7 | 0.00 | 0.00 | 0.00 | 1 | 1011.2 |
| 20260503053718 | 54 | 259 | 4.3 | 8.7 | 0.00 | 0.00 | 0.00 | 1 | 1011.2 |
| 20260503053617 | 54 | 256 | 4.3 | 8.7 | 0.00 | 0.00 | 0.00 | 1 | 1011.2 |
| 20260503053517 | 54 | 232 | 4.3 | 8.7 | 0.00 | 0.00 | 0.00 | 1 | 1011.2 |
| 20260503053418 | 54 | 269 | 5.2 | 8.7 | 0.00 | 0.00 | 0.00 | 1 | 1011.3 |
| 20260503053318 | 54 | 265 | 5.2 | 10.4 | 0.00 | 0.00 | 0.00 | 1 | 1011.2 |
| 20260503053218 | 54 | 257 | 6.1 | 10.4 | 0.00 | 0.00 | 0.00 | 1 | 1011.3 |
| 20260503053118 | 54 | 214 | 6.1 | 10.4 | 0.00 | 0.00 | 0.00 | 1 | 1011.2 |
| 20260503053013 | 54 | 247 | 6.1 | 10.4 | 0.00 | 0.00 | 0.00 | 1 | 1011.2 |
| 20260503052913 | 54 | 251 | 6.1 | 10.4 | 0.00 | 0.00 | 0.00 | 1 | 1011.2 |
| 20260503052814 | 54 | 287 | 7.0 | 11.3 | 0.00 | 0.00 | 0.00 | 1 | 1011.2 |
| 20260503052714 | 54 | 268 | 7.0 | 11.3 | 0.00 | 0.00 | 0.00 | 1 | 1011.2 |
| 20260503052614 | 54 | 239 | 7.0 | 11.3 | 0.00 | 0.00 | 0.00 | 1 | 1011.2 |
| 20260503052513 | 54 | 259 | 7.0 | 11.3 | 0.00 | 0.00 | 0.00 | 1 | 1011.2 |
| 20260503052414 | 54 | 267 | 7.0 | 11.3 | 0.00 | 0.00 | 0.00 | 1 | 1011.2 |
| 20260503052314 | 54 | 276 | 7.0 | 11.3 | 0.00 | 0.00 | 0.00 | 1 | 1011.2 |
| 20260503052214 | 54 | 244 | 7.0 | 11.3 | 0.00 | 0.00 | 0.00 | 1 | 1011.2 |
| 20260503052114 | 54 | 262 | 7.0 | 11.3 | 0.00 | 0.00 | 0.00 | 1 | 1011.2 |
| 20260503052014 | 54 | 264 | 7.0 | 11.3 | 0.00 | 0.00 | 0.00 | 1 | 1011.2 |
| 20260503051914 | 54 | 284 | 7.0 | 11.3 | 0.00 | 0.00 | 0.00 | 1 | 1011.2 |
| 20260503051814 | 54 | 257 | 7.0 | 11.3 | 0.00 | 0.00 | 0.00 | 1 | 1011.2 |
| 20260503051715 | 54 | 274 | 7.0 | 11.3 | 0.00 | 0.00 | 0.00 | 1 | 1011.1 |
| 20260503051614 | 54 | 278 | 7.0 | 11.3 | 0.00 | 0.00 | 0.00 | 1 | 1011.2 |
| 20260503051513 | 54 | 277 | 7.0 | 12.2 | 0.00 | 0.00 | 0.00 | 1 | 1011.2 |
| 20260503051413 | 54 | 284 | 7.0 | 12.2 | 0.00 | 0.00 | 0.00 | 1 | 1011.2 |
| 20260503051313 | 54 | 283 | 7.0 | 12.2 | 0.00 | 0.00 | 0.00 | 1 | 1011.2 |
| 20260503051214 | 54 | 282 | 7.0 | 12.2 | 0.00 | 0.00 | 0.00 | 1 | 1011.2 |
| 20260503051110 | 54 | 243 | 7.0 | 12.2 | 0.00 | 0.00 | 0.00 | 1 | 1011.2 |
| 20260503051010 | 54 | 278 | 7.0 | 12.2 | 0.00 | 0.00 | 0.00 | 1 | 1011.2 |
| 20260503050910 | 54 | 267 | 6.1 | 12.2 | 0.00 | 0.00 | 0.00 | 1 | 1011.2 |
| 20260503050810 | 54 | 274 | 7.0 | 12.2 | 0.00 | 0.00 | 0.00 | 1 | 1011.2 |
| 20260503050709 | 54 | 265 | 6.1 | 12.2 | 0.00 | 0.00 | 0.00 | 1 | 1011.2 |
| 20260503050610 | 54 | 267 | 6.1 | 12.2 | 0.00 | 0.00 | 0.00 | 1 | 1011.2 |
| 20260503050509 | 54 | 261 | 6.1 | 11.3 | 0.00 | 0.00 | 0.00 | 1 | 1011.2 |
| 20260503050409 | 54 | 252 | 6.1 | 11.3 | 0.00 | 0.00 | 0.00 | 1 | 1011.2 |
| 20260503050309 | 54 | 236 | 6.1 | 11.3 | 0.00 | 0.00 | 0.00 | 1 | 1011.2 |
| 20260503050209 | 54 | 258 | 6.1 | 11.3 | 0.00 | 0.00 | 0.00 | 1 | 1011.1 |
| 20260503050110 | 54 | 273 | 6.1 | 11.3 | 0.00 | 0.00 | 0.00 | 1 | 1011.2 |
| 20260503050010 | 54 | 281 | 6.1 | 11.3 | 0.00 | 0.00 | 0.00 | 1 | 1011.2 |
| 20260503045910 | 54 | 279 | 6.1 | 11.3 | 0.00 | 0.00 | 0.00 | 1 | 1011.2 |
| 20260503045810 | 54 | 257 | 5.2 | 11.3 | 0.00 | 0.00 | 0.00 | 1 | 1011.2 |
| 20260503045710 | 54 | 252 | 5.2 | 11.3 | 0.00 | 0.00 | 0.00 | 1 | 1011.2 |
| 20260503045610 | 54 | 263 | 5.2 | 11.3 | 0.00 | 0.00 | 0.00 | 1 | 1011.2 |
| 20260503045509 | 54 | 251 | 5.2 | 11.3 | 0.00 | 0.00 | 0.00 | 1 | 1011.1 |
| 20260503045410 | 54 | 246 | 5.2 | 10.4 | 0.00 | 0.00 | 0.00 | 1 | 1011.1 |
| 20260503045310 | 54 | 275 | 5.2 | 10.4 | 0.00 | 0.00 | 0.00 | 1 | 1011.1 |
| 20260503045204 | 54 | 263 | 5.2 | 10.4 | 0.00 | 0.00 | 0.00 | 1 | 1011.1 |
| 20260503045104 | 54 | 277 | 5.2 | 10.4 | 0.00 | 0.00 | 0.00 | 1 | 1011.1 |
| 20260503045003 | 54 | 282 | 5.2 | 10.4 | 0.00 | 0.00 | 0.00 | 1 | 1011.1 |
| 20260503044903 | 54 | 284 | 5.2 | 11.3 | 0.00 | 0.00 | 0.00 | 1 | 1011.1 |
| 20260503044803 | 54 | 258 | 6.1 | 13.0 | 0.00 | 0.00 | 0.00 | 1 | 1011.1 |
| 20260503044658 | 54 | 321 | 6.1 | 13.0 | 0.00 | 0.00 | 0.00 | 1 | 1011.2 |
| 20260503044557 | 54 | 285 | 6.1 | 13.0 | 0.00 | 0.00 | 0.00 | 1 | 1011.1 |
| 20260503044458 | 54 | 274 | 6.1 | 13.0 | 0.00 | 0.00 | 0.00 | 1 | 1011.1 |
| 20260503044356 | 54 | 301 | 7.0 | 13.0 | 0.00 | 0.00 | 0.00 | 1 | 1011.1 |
| 20260503044254 | 54 | 261 | 7.0 | 13.0 | 0.00 | 0.00 | 0.00 | 1 | 1011.1 |
| 20260503044153 | 54 | 255 | 7.0 | 13.0 | 0.00 | 0.00 | 0.00 | 1 | 1011.1 |
| 20260503044054 | 54 | 267 | 7.0 | 13.0 | 0.00 | 0.00 | 0.00 | 1 | 1011.1 |
| 20260503043954 | 54 | 313 | 7.0 | 13.0 | 0.00 | 0.00 | 0.00 | 1 | 1011.1 |
| 20260503043854 | 54 | 273 | 7.0 | 13.0 | 0.00 | 0.00 | 0.00 | 1 | 1011.2 |
| 20260503043754 | 54 | 289 | 7.0 | 11.3 | 0.00 | 0.00 | 0.00 | 1 | 1011.1 |
| 20260503043653 | 54 | 254 | 6.1 | 11.3 | 0.00 | 0.00 | 0.00 | 1 | 1011.2 |
| 20260503043551 | 54 | 268 | 6.1 | 11.3 | 0.00 | 0.00 | 0.00 | 1 | 1011.1 |
| 20260503043452 | 54 | 281 | 6.1 | 11.3 | 0.00 | 0.00 | 0.00 | 1 | 1011.1 |
| 20260503043352 | 54 | 273 | 6.1 | 10.4 | 0.00 | 0.00 | 0.00 | 1 | 1011.1 |
| 20260503043252 | 54 | 270 | 6.1 | 10.4 | 0.00 | 0.00 | 0.00 | 1 | 1011.1 |
| 20260503043152 | 54 | 266 | 6.1 | 10.4 | 0.00 | 0.00 | 0.00 | 1 | 1011.0 |
| 20260503043051 | 54 | 253 | 6.1 | 9.6 | 0.00 | 0.00 | 0.00 | 1 | 1011.0 |
| 20260503042951 | 54 | 299 | 6.1 | 9.6 | 0.00 | 0.00 | 0.00 | 1 | 1011.0 |
| 20260503042852 | 54 | 263 | 6.1 | 10.4 | 0.00 | 0.00 | 0.00 | 1 | 1011.0 |
| 20260503042752 | 54 | 269 | 6.1 | 10.4 | 0.00 | 0.00 | 0.00 | 1 | 1011.0 |
| 20260503042652 | 54 | 263 | 6.1 | 10.4 | 0.00 | 0.00 | 0.00 | 1 | 1011.0 |
| 20260503042550 | 54 | 262 | 6.1 | 10.4 | 0.00 | 0.00 | 0.00 | 1 | 1011.1 |
| 20260503042445 | 54 | 225 | 6.1 | 11.3 | 0.00 | 0.00 | 0.00 | 1 | 1011.0 |
| 20260503042345 | 54 | 281 | 6.1 | 11.3 | 0.00 | 0.00 | 0.00 | 1 | 1011.0 |
| 20260503042245 | 54 | 284 | 7.0 | 11.3 | 0.00 | 0.00 | 0.00 | 1 | 1011.0 |
| 20260503042146 | 54 | 311 | 6.1 | 11.3 | 0.00 | 0.00 | 0.00 | 1 | 1011.0 |
| 20260503042045 | 54 | 271 | 6.1 | 11.3 | 0.00 | 0.00 | 0.00 | 1 | 1011.0 |
| 20260503041938 | 54 | 266 | 6.1 | 11.3 | 0.00 | 0.00 | 0.00 | 1 | 1011.0 |
| 20260503041837 | 54 | 275 | 6.1 | 11.3 | 0.00 | 0.00 | 0.00 | 1 | 1011.0 |
| 20260503041737 | 54 | 346 | 7.0 | 11.3 | 0.00 | 0.00 | 0.00 | 1 | 1011.0 |
| 20260503041637 | 54 | 261 | 7.0 | 11.3 | 0.00 | 0.00 | 0.00 | 1 | 1011.0 |
| 20260503041537 | 54 | 276 | 7.0 | 11.3 | 0.00 | 0.00 | 0.00 | 1 | 1011.0 |
| 20260503041434 | 54 | 273 | 7.0 | 11.3 | 0.00 | 0.00 | 0.00 | 1 | 1011.0 |
| 20260503041333 | 54 | 246 | 6.1 | 11.3 | 0.00 | 0.00 | 0.00 | 1 | 1011.0 |
| 20260503041233 | 54 | 211 | 6.1 | 10.4 | 0.00 | 0.00 | 0.00 | 1 | 1011.0 |
| 20260503041132 | 54 | 272 | 6.1 | 10.4 | 0.00 | 0.00 | 0.00 | 1 | 1011.0 |
| 20260503041040 | 54 | 287 | 6.1 | 10.4 | 0.00 | 0.00 | 0.00 | 1 | 1011.0 |
| 20260503041036 | 54 | 282 | 6.1 | 10.4 | 0.00 | 0.00 | 0.00 | 1 | 1011.0 |
| 20260503040832 | 54 | 256 | 6.1 | 10.4 | 0.00 | 0.00 | 0.00 | 1 | 1011.0 |
| 20260503040731 | 54 | 306 | 6.1 | 10.4 | 0.00 | 0.00 | 0.00 | 1 | 1011.0 |
| 20260503040631 | 54 | 270 | 6.1 | 10.4 | 0.00 | 0.00 | 0.00 | 1 | 1010.9 |
| 20260503040532 | 54 | 279 | 6.1 | 10.4 | 0.00 | 0.00 | 0.00 | 1 | 1010.9 |
| 20260503040432 | 54 | 263 | 6.1 | 10.4 | 0.00 | 0.00 | 0.00 | 1 | 1010.9 |
| 20260503040332 | 54 | 283 | 6.1 | 9.6 | 0.00 | 0.00 | 0.00 | 1 | 1010.9 |
| 20260503040231 | 54 | 254 | 6.1 | 9.6 | 0.00 | 0.00 | 0.00 | 1 | 1011.0 |
| 20260503040131 | 54 | 272 | 6.1 | 10.4 | 0.00 | 0.00 | 0.00 | 1 | 1011.0 |
| 20260503040030 | 54 | 267 | 6.1 | 10.4 | 0.00 | 0.00 | 0.00 | 1 | 1011.0 |
| 20260503035930 | 54 | 293 | 7.0 | 12.2 | 0.00 | 0.00 | 0.00 | 1 | 1011.0 |
| 20260503035827 | 54 | 269 | 7.0 | 12.2 | 0.00 | 0.00 | 0.00 | 1 | 1011.0 |
| 20260503035728 | 54 | 272 | 7.0 | 12.2 | 0.00 | 0.00 | 0.00 | 1 | 1010.9 |
| 20260503035628 | 54 | 265 | 7.0 | 12.2 | 0.00 | 0.00 | 0.00 | 1 | 1010.9 |
| 20260503035527 | 54 | 272 | 7.0 | 12.2 | 0.00 | 0.00 | 0.00 | 1 | 1010.9 |
| 20260503035427 | 54 | 273 | 7.8 | 12.2 | 0.00 | 0.00 | 0.00 | 1 | 1010.8 |
| 20260503035327 | 54 | 297 | 7.8 | 12.2 | 0.00 | 0.00 | 0.00 | 1 | 1010.9 |
| 20260503035221 | 54 | 271 | 7.8 | 12.2 | 0.00 | 0.00 | 0.00 | 1 | 1010.8 |
| 20260503035121 | 54 | 285 | 7.8 | 12.2 | 0.00 | 0.00 | 0.00 | 1 | 1010.8 |
| 20260503035022 | 54 | 275 | 7.8 | 12.2 | 0.00 | 0.00 | 0.00 | 1 | 1010.8 |
| 20260503034922 | 54 | 270 | 7.8 | 12.2 | 0.00 | 0.00 | 0.00 | 1 | 1010.8 |
| 20260503034821 | 54 | 281 | 7.8 | 12.2 | 0.00 | 0.00 | 0.00 | 1 | 1010.8 |
| 20260503034717 | 54 | 282 | 7.0 | 12.2 | 0.00 | 0.00 | 0.00 | 1 | 1010.8 |
| 20260503034617 | 54 | 248 | 7.0 | 11.3 | 0.00 | 0.00 | 0.00 | 1 | 1010.8 |
| 20260503034532 | 54 | 269 | 7.0 | 11.3 | 0.00 | 0.00 | 0.00 | 1 | 1010.8 |
| 20260503034528 | 54 | 286 | 7.0 | 11.3 | 0.00 | 0.00 | 0.00 | 1 | 1010.8 |
| 20260503034523 | 54 | 271 | 7.0 | 11.3 | 0.00 | 0.00 | 0.00 | 1 | 1010.8 |
| 20260503034209 | 54 | 277 | 7.0 | 11.3 | 0.00 | 0.00 | 0.00 | 1 | 1010.8 |
| 20260503034109 | 54 | 254 | 7.0 | 11.3 | 0.00 | 0.00 | 0.00 | 1 | 1010.8 |
| 20260503034009 | 54 | 280 | 7.0 | 11.3 | 0.00 | 0.00 | 0.00 | 1 | 1010.8 |
| 20260503033917 | 54 | 257 | 7.0 | 12.2 | 0.00 | 0.00 | 0.00 | 1 | 1010.7 |
| 20260503033913 | 54 | 257 | 7.0 | 12.2 | 0.00 | 0.00 | 0.00 | 1 | 1010.8 |
| 20260503033704 | 54 | 291 | 7.0 | 12.2 | 0.00 | 0.00 | 0.00 | 1 | 1010.7 |
| 20260503033603 | 54 | 263 | 7.0 | 12.2 | 0.00 | 0.00 | 0.00 | 1 | 1010.7 |
| 20260503033503 | 54 | 264 | 7.0 | 12.2 | 0.00 | 0.00 | 0.00 | 1 | 1010.7 |
| 20260503033403 | 54 | 280 | 7.0 | 12.2 | 0.00 | 0.00 | 0.00 | 1 | 1010.6 |
| 20260503033303 | 54 | 260 | 7.0 | 12.2 | 0.00 | 0.00 | 0.00 | 1 | 1010.6 |
| 20260503033200 | 54 | 265 | 7.0 | 12.2 | 0.00 | 0.00 | 0.00 | 1 | 1010.6 |
| 20260503033057 | 54 | 263 | 7.0 | 13.0 | 0.00 | 0.00 | 0.00 | 1 | 1010.7 |
| 20260503032958 | 54 | 265 | 7.0 | 13.0 | 0.00 | 0.00 | 0.00 | 1 | 1010.6 |
| 20260503032905 | 54 | 294 | 7.8 | 13.0 | 0.00 | 0.00 | 0.00 | 1 | 1010.6 |
| 20260503032901 | 54 | 265 | 7.0 | 13.0 | 0.00 | 0.00 | 0.00 | 1 | 1010.6 |
| 20260503032705 | 54 | 251 | 7.8 | 13.0 | 0.00 | 0.00 | 0.00 | 1 | 1010.6 |
| 20260503032352 | 54 | 276 | 7.0 | 13.0 | 0.00 | 0.00 | 0.00 | 1 | 1010.6 |
| 20260503032251 | 54 | 269 | 7.0 | 13.0 | 0.00 | 0.00 | 0.00 | 1 | 1010.6 |
| 20260503032145 | 54 | 270 | 7.0 | 13.0 | 0.00 | 0.00 | 0.00 | 1 | 1010.6 |
| 20260503032045 | 54 | 292 | 7.0 | 13.9 | 0.00 | 0.00 | 0.00 | 1 | 1010.5 |
| 20260503031945 | 54 | 290 | 7.0 | 13.9 | 0.00 | 0.00 | 0.00 | 1 | 1010.5 |
| 20260503031845 | 54 | 246 | 7.0 | 13.9 | 0.00 | 0.00 | 0.00 | 1 | 1010.5 |
| 20260503031745 | 54 | 281 | 7.0 | 13.9 | 0.00 | 0.00 | 0.00 | 1 | 1010.4 |
| 20260503031640 | 54 | 275 | 7.0 | 13.9 | 0.00 | 0.00 | 0.00 | 1 | 1010.4 |
| 20260503031548 | 54 | 292 | 7.0 | 13.9 | 0.00 | 0.00 | 0.00 | 1 | 1010.4 |
| 20260503031544 | 54 | 277 | 7.0 | 13.9 | 0.00 | 0.00 | 0.00 | 1 | 1010.4 |
| 20260503031340 | 54 | 292 | 7.8 | 13.9 | 0.00 | 0.00 | 0.00 | 1 | 1010.3 |
| 20260503031238 | 54 | 286 | 7.8 | 13.9 | 0.00 | 0.00 | 0.00 | 1 | 1010.2 |
| 20260503031134 | 54 | 286 | 7.0 | 13.9 | 0.00 | 0.00 | 0.00 | 1 | 1010.3 |
| 20260503031034 | 54 | 206 | 7.0 | 12.2 | 0.00 | 0.00 | 0.00 | 1 | 1010.3 |
| 20260503030934 | 54 | 284 | 7.0 | 12.2 | 0.00 | 0.00 | 0.00 | 1 | 1010.3 |
| 20260503030833 | 54 | 268 | 7.0 | 12.2 | 0.00 | 0.00 | 0.00 | 1 | 1010.3 |
| 20260503030733 | 54 | 284 | 7.0 | 12.2 | 0.00 | 0.00 | 0.00 | 1 | 1010.3 |
| 20260503030628 | 54 | 295 | 7.0 | 12.2 | 0.00 | 0.00 | 0.00 | 1 | 1010.2 |
| 20260503030527 | 54 | 284 | 7.8 | 12.2 | 0.00 | 0.00 | 0.00 | 1 | 1010.2 |
| 20260503030427 | 54 | 259 | 7.8 | 12.2 | 0.00 | 0.00 | 0.00 | 1 | 1010.2 |
| 20260503030327 | 54 | 273 | 7.8 | 12.2 | 0.00 | 0.00 | 0.00 | 1 | 1010.2 |
| 20260503030227 | 54 | 296 | 7.0 | 12.2 | 0.00 | 0.00 | 0.00 | 1 | 1010.2 |
| 20260503030121 | 54 | 266 | 7.8 | 12.2 | 0.00 | 0.00 | 0.00 | 1 | 1010.2 |
| 20260503030021 | 54 | 284 | 7.0 | 12.2 | 0.00 | 0.00 | 0.00 | 1 | 1010.2 |
| 20260503025921 | 54 | 281 | 7.0 | 12.2 | 0.00 | 0.00 | 0.00 | 1 | 1010.2 |
| 20260503025822 | 54 | 279 | 7.8 | 13.9 | 0.00 | 0.00 | 0.00 | 1 | 1010.2 |
| 20260503025721 | 54 | 265 | 7.8 | 13.9 | 0.00 | 0.00 | 0.00 | 1 | 1010.2 |
| 20260503025615 | 54 | 276 | 7.8 | 13.9 | 0.00 | 0.00 | 0.00 | 1 | 1010.2 |
| 20260503025515 | 54 | 290 | 7.8 | 13.9 | 0.00 | 0.00 | 0.00 | 1 | 1010.2 |
| 20260503025416 | 54 | 270 | 7.8 | 13.9 | 0.00 | 0.00 | 0.00 | 1 | 1010.2 |
| 20260503025315 | 54 | 286 | 7.8 | 13.9 | 0.00 | 0.00 | 0.00 | 1 | 1010.2 |
| 20260503025214 | 54 | 283 | 7.8 | 13.9 | 0.00 | 0.00 | 0.00 | 1 | 1010.3 |
| 20260503025110 | 54 | 301 | 7.8 | 13.9 | 0.00 | 0.00 | 0.00 | 1 | 1010.2 |
| 20260503025010 | 54 | 295 | 7.8 | 13.9 | 0.00 | 0.00 | 0.00 | 1 | 1010.2 |
| 20260503024909 | 54 | 281 | 7.8 | 13.9 | 0.00 | 0.00 | 0.00 | 1 | 1010.2 |
| 20260503024809 | 54 | 270 | 7.8 | 12.2 | 0.00 | 0.00 | 0.00 | 1 | 1010.2 |
| 20260503024709 | 54 | 241 | 7.8 | 12.2 | 0.00 | 0.00 | 0.00 | 1 | 1010.2 |
| 20260503024606 | 54 | 265 | 7.8 | 12.2 | 0.00 | 0.00 | 0.00 | 1 | 1010.2 |
| 20260503024505 | 54 | 271 | 7.0 | 12.2 | 0.00 | 0.00 | 0.00 | 1 | 1010.2 |
| 20260503024405 | 54 | 258 | 7.0 | 12.2 | 0.00 | 0.00 | 0.00 | 1 | 1010.2 |
| 20260503024305 | 54 | 281 | 7.8 | 12.2 | 0.00 | 0.00 | 0.00 | 1 | 1010.3 |
| 20260503024203 | 54 | 274 | 7.8 | 12.2 | 0.00 | 0.00 | 0.00 | 1 | 1010.2 |
| 20260503024057 | 54 | 285 | 7.0 | 12.2 | 0.00 | 0.00 | 0.00 | 1 | 1010.2 |
| 20260503023957 | 54 | 281 | 7.8 | 12.2 | 0.00 | 0.00 | 0.00 | 1 | 1010.2 |
| 20260503023913 | 54 | 306 | 7.8 | 12.2 | 0.00 | 0.00 | 0.00 | 1 | 1010.2 |
| 20260503023909 | 54 | 259 | 7.8 | 12.2 | 0.00 | 0.00 | 0.00 | 1 | 1010.2 |
| 20260503023904 | 54 | 282 | 7.8 | 12.2 | 0.00 | 0.00 | 0.00 | 1 | 1010.2 |
| 20260503023451 | 54 | 298 | 7.0 | 12.2 | 0.00 | 0.00 | 0.00 | 1 | 1010.2 |
| 20260503023351 | 54 | 281 | 7.0 | 12.2 | 0.00 | 0.00 | 0.00 | 1 | 1010.2 |
| 20260503023251 | 54 | 264 | 7.0 | 12.2 | 0.00 | 0.00 | 0.00 | 1 | 1010.3 |
| 20260503023151 | 54 | 278 | 7.0 | 12.2 | 0.00 | 0.00 | 0.00 | 1 | 1010.2 |
| 20260503023046 | 54 | 273 | 7.0 | 12.2 | 0.00 | 0.00 | 0.00 | 1 | 1010.2 |
| 20260503022945 | 54 | 264 | 7.8 | 12.2 | 0.00 | 0.00 | 0.00 | 1 | 1010.2 |
| 20260503022845 | 54 | 311 | 7.8 | 13.0 | 0.00 | 0.00 | 0.00 | 1 | 1010.3 |
| 20260503022754 | 54 | 260 | 7.8 | 13.0 | 0.00 | 0.00 | 0.00 | 1 | 1010.3 |
| 20260503022749 | 54 | 306 | 7.8 | 13.0 | 0.00 | 0.00 | 0.00 | 1 | 1010.3 |
| 20260503022539 | 54 | 285 | 7.0 | 13.0 | 0.00 | 0.00 | 0.00 | 1 | 1010.3 |
| 20260503022439 | 54 | 254 | 7.0 | 13.0 | 0.00 | 0.00 | 0.00 | 1 | 1010.2 |
| 20260503022339 | 54 | 252 | 7.0 | 13.0 | 0.00 | 0.00 | 0.00 | 1 | 1010.3 |
| 20260503022239 | 54 | 288 | 7.0 | 13.0 | 0.00 | 0.00 | 0.00 | 1 | 1010.2 |
| 20260503022139 | 54 | 240 | 7.0 | 13.0 | 0.00 | 0.00 | 0.00 | 1 | 1010.2 |
| 20260503022033 | 54 | 269 | 7.0 | 13.0 | 0.00 | 0.00 | 0.00 | 1 | 1010.2 |
| 20260503021933 | 54 | 260 | 7.0 | 13.0 | 0.00 | 0.00 | 0.00 | 1 | 1010.3 |
| 20260503021833 | 54 | 265 | 7.0 | 12.2 | 0.00 | 0.00 | 0.00 | 1 | 1010.2 |
| 20260503021749 | 54 | 248 | 7.8 | 12.2 | 0.00 | 0.00 | 0.00 | 1 | 1010.2 |
| 20260503021745 | 54 | 292 | 7.8 | 12.2 | 0.00 | 0.00 | 0.00 | 1 | 1010.3 |
| 20260503021532 | 54 | 250 | 7.8 | 12.2 | 0.00 | 0.00 | 0.00 | 1 | 1010.2 |
| 20260503021328 | 54 | 271 | 7.8 | 12.2 | 0.00 | 0.00 | 0.00 | 1 | 1010.2 |
| 20260503021227 | 54 | 213 | 7.8 | 12.2 | 0.00 | 0.00 | 0.00 | 1 | 1010.3 |
| 20260503021127 | 54 | 253 | 7.8 | 12.2 | 0.00 | 0.00 | 0.00 | 1 | 1010.3 |
| 20260503021023 | 54 | 264 | 7.8 | 12.2 | 0.00 | 0.00 | 0.00 | 1 | 1010.3 |
| 20260503020924 | 54 | 238 | 7.8 | 13.0 | 0.00 | 0.00 | 0.00 | 1 | 1010.3 |
| 20260503020824 | 54 | 242 | 7.8 | 13.0 | 0.00 | 0.00 | 0.00 | 1 | 1010.4 |
| 20260503020724 | 54 | 242 | 7.0 | 13.0 | 0.00 | 0.00 | 0.00 | 1 | 1010.3 |
| 20260503020620 | 54 | 262 | 7.0 | 13.0 | 0.00 | 0.00 | 0.00 | 1 | 1010.4 |
| 20260503020515 | 54 | 258 | 7.0 | 13.0 | 0.00 | 0.00 | 0.00 | 1 | 1010.4 |
| 20260503020415 | 54 | 253 | 7.0 | 13.0 | 0.00 | 0.00 | 0.00 | 1 | 1010.4 |
| 20260503020316 | 54 | 216 | 7.0 | 13.0 | 0.00 | 0.00 | 0.00 | 1 | 1010.4 |
| 20260503020216 | 55 | 209 | 7.0 | 13.0 | 0.00 | 0.00 | 0.00 | 1 | 1010.4 |
| 20260503020118 | 55 | 238 | 7.0 | 13.0 | 0.00 | 0.00 | 0.00 | 1 | 1010.4 |
| 20260503020113 | 55 | 246 | 7.0 | 13.0 | 0.00 | 0.00 | 0.00 | 1 | 1010.4 |
| 20260503015909 | 55 | 255 | 7.0 | 13.0 | 0.00 | 0.00 | 0.00 | 1 | 1010.4 |
| 20260503015809 | 55 | 243 | 6.1 | 13.0 | 0.00 | 0.00 | 0.00 | 1 | 1010.4 |
| 20260503015709 | 55 | 276 | 7.0 | 13.0 | 0.00 | 0.00 | 0.00 | 1 | 1010.4 |
| 20260503015609 | 55 | 261 | 7.0 | 13.0 | 0.00 | 0.00 | 0.00 | 1 | 1010.4 |
| 20260503015503 | 55 | 243 | 7.0 | 13.0 | 0.00 | 0.00 | 0.00 | 1 | 1010.4 |
| 20260503015411 | 55 | 230 | 7.0 | 12.2 | 0.00 | 0.00 | 0.00 | 1 | 1010.4 |
| 20260503015407 | 55 | 270 | 7.0 | 12.2 | 0.00 | 0.00 | 0.00 | 1 | 1010.4 |
| 20260503015204 | 55 | 311 | 7.0 | 12.2 | 0.00 | 0.00 | 0.00 | 1 | 1010.5 |
| 20260503015102 | 55 | 291 | 7.0 | 12.2 | 0.00 | 0.00 | 0.00 | 1 | 1010.5 |
| 20260503014957 | 55 | 258 | 7.0 | 12.2 | 0.00 | 0.00 | 0.00 | 1 | 1010.4 |
| 20260503014906 | 55 | 217 | 7.0 | 12.2 | 0.00 | 0.00 | 0.00 | 1 | 1010.5 |
| 20260503014901 | 55 | 294 | 7.0 | 12.2 | 0.00 | 0.00 | 0.00 | 1 | 1010.5 |
| 20260503014657 | 55 | 236 | 7.0 | 12.2 | 0.00 | 0.00 | 0.00 | 1 | 1010.4 |
| 20260503014557 | 55 | 264 | 7.0 | 12.2 | 0.00 | 0.00 | 0.00 | 1 | 1010.4 |
| 20260503014453 | 55 | 246 | 7.0 | 12.2 | 0.00 | 0.00 | 0.00 | 1 | 1010.4 |
| 20260503014353 | 55 | 279 | 7.0 | 12.2 | 0.00 | 0.00 | 0.00 | 1 | 1010.4 |
| 20260503014254 | 55 | 230 | 7.0 | 12.2 | 0.00 | 0.00 | 0.00 | 1 | 1010.4 |
| 20260503014153 | 55 | 280 | 7.0 | 12.2 | 0.00 | 0.00 | 0.00 | 1 | 1010.4 |
| 20260503014050 | 55 | 280 | 7.0 | 12.2 | 0.00 | 0.00 | 0.00 | 1 | 1010.5 |
| 20260503013946 | 55 | 259 | 7.0 | 12.2 | 0.00 | 0.00 | 0.00 | 1 | 1010.5 |
| 20260503013846 | 55 | 252 | 7.0 | 12.2 | 0.00 | 0.00 | 0.00 | 1 | 1010.5 |
| 20260503013745 | 55 | 256 | 7.0 | 13.9 | 0.00 | 0.00 | 0.00 | 1 | 1010.5 |
| 20260503013645 | 55 | 257 | 7.8 | 13.9 | 0.00 | 0.00 | 0.00 | 1 | 1010.5 |
| 20260503013545 | 55 | 274 | 7.8 | 13.9 | 0.00 | 0.00 | 0.00 | 1 | 1010.5 |
| 20260503013439 | 55 | 259 | 7.8 | 13.9 | 0.00 | 0.00 | 0.00 | 1 | 1010.5 |
| 20260503013339 | 55 | 273 | 7.8 | 13.9 | 0.00 | 0.00 | 0.00 | 1 | 1010.6 |
| 20260503013239 | 55 | 277 | 7.8 | 13.9 | 0.00 | 0.00 | 0.00 | 1 | 1010.5 |
| 20260503013139 | 55 | 280 | 7.8 | 13.9 | 0.00 | 0.00 | 0.00 | 1 | 1010.6 |
| 20260503013039 | 55 | 252 | 7.8 | 13.9 | 0.00 | 0.00 | 0.00 | 1 | 1010.5 |
| 20260503012935 | 55 | 262 | 7.8 | 13.9 | 0.00 | 0.00 | 0.00 | 1 | 1010.6 |
| 20260503012834 | 55 | 283 | 7.8 | 13.9 | 0.00 | 0.00 | 0.00 | 1 | 1010.6 |
| 20260503012734 | 55 | 281 | 7.8 | 13.9 | 0.00 | 0.00 | 0.00 | 1 | 1010.6 |
| 20260503012633 | 55 | 275 | 7.8 | 13.9 | 0.00 | 0.00 | 0.00 | 1 | 1010.6 |
| 20260503012533 | 55 | 263 | 7.8 | 13.9 | 0.00 | 0.00 | 0.00 | 1 | 1010.6 |
| 20260503012428 | 55 | 281 | 7.8 | 13.9 | 0.00 | 0.00 | 0.00 | 1 | 1010.6 |
| 20260503012327 | 55 | 283 | 7.8 | 13.9 | 0.00 | 0.00 | 0.00 | 1 | 1010.6 |
| 20260503012227 | 55 | 232 | 7.0 | 13.9 | 0.00 | 0.00 | 0.00 | 1 | 1010.6 |
| 20260503012127 | 55 | 290 | 7.8 | 13.0 | 0.00 | 0.00 | 0.00 | 1 | 1010.6 |
| 20260503012027 | 55 | 284 | 7.8 | 14.8 | 0.00 | 0.00 | 0.00 | 1 | 1010.6 |
| 20260503011924 | 55 | 297 | 7.8 | 14.8 | 0.00 | 0.00 | 0.00 | 1 | 1010.6 |
| 20260503011821 | 55 | 267 | 7.8 | 14.8 | 0.00 | 0.00 | 0.00 | 1 | 1010.6 |
| 20260503011721 | 55 | 265 | 7.8 | 14.8 | 0.00 | 0.00 | 0.00 | 1 | 1010.6 |
| 20260503011621 | 55 | 299 | 7.8 | 14.8 | 0.00 | 0.00 | 0.00 | 1 | 1010.6 |
| 20260503011521 | 55 | 240 | 7.8 | 14.8 | 0.00 | 0.00 | 0.00 | 1 | 1010.6 |
| 20260503011415 | 55 | 261 | 7.8 | 14.8 | 0.00 | 0.00 | 0.00 | 1 | 1010.6 |
| 20260503011315 | 55 | 238 | 7.8 | 14.8 | 0.00 | 0.00 | 0.00 | 1 | 1010.6 |
| 20260503011215 | 55 | 279 | 7.8 | 14.8 | 0.00 | 0.00 | 0.00 | 1 | 1010.6 |
| 20260503011115 | 55 | 286 | 7.0 | 13.0 | 0.00 | 0.00 | 0.00 | 1 | 1010.6 |
| 20260503011015 | 55 | 265 | 7.0 | 12.2 | 0.00 | 0.00 | 0.00 | 1 | 1010.6 |
| 20260503010910 | 55 | 257 | 7.0 | 12.2 | 0.00 | 0.00 | 0.00 | 1 | 1010.6 |
| 20260503010809 | 55 | 228 | 7.0 | 12.2 | 0.00 | 0.00 | 0.00 | 1 | 1010.6 |
| 20260503010718 | 55 | 271 | 7.0 | 13.9 | 0.00 | 0.00 | 0.00 | 1 | 1010.6 |
| 20260503010714 | 55 | 255 | 7.8 | 12.2 | 0.00 | 0.00 | 0.00 | 1 | 1010.7 |
| 20260503010509 | 55 | 286 | 7.0 | 13.9 | 0.00 | 0.00 | 0.00 | 1 | 1010.6 |
| 20260503010403 | 55 | 327 | 7.0 | 13.9 | 0.00 | 0.00 | 0.00 | 1 | 1010.7 |
| 20260503010302 | 55 | 315 | 7.0 | 13.9 | 0.00 | 0.00 | 0.00 | 1 | 1010.6 |
| 20260503010204 | 55 | 251 | 7.8 | 13.9 | 0.00 | 0.00 | 0.00 | 1 | 1010.7 |
| 20260503010103 | 55 | 294 | 7.8 | 13.9 | 0.00 | 0.00 | 0.00 | 1 | 1010.7 |
| 20260503010003 | 55 | 303 | 7.8 | 13.9 | 0.00 | 0.00 | 0.00 | 1 | 1010.6 |
| 20260503005857 | 55 | 260 | 7.8 | 13.9 | 0.00 | 0.00 | 0.00 | 1 | 1010.6 |
| 20260503005757 | 55 | 273 | 7.0 | 13.9 | 0.00 | 0.00 | 0.00 | 1 | 1010.6 |
| 20260503005657 | 56 | 254 | 7.0 | 13.9 | 0.00 | 0.00 | 0.00 | 1 | 1010.7 |
| 20260503005557 | 56 | 258 | 7.0 | 13.9 | 0.00 | 0.00 | 0.00 | 1 | 1010.6 |
| 20260503005457 | 56 | 259 | 7.0 | 13.9 | 0.00 | 0.00 | 0.00 | 1 | 1010.7 |
| 20260503005351 | 56 | 262 | 7.0 | 13.0 | 0.00 | 0.00 | 0.00 | 1 | 1010.7 |
| 20260503005251 | 56 | 246 | 7.0 | 13.0 | 0.00 | 0.00 | 0.00 | 1 | 1010.7 |
| 20260503005151 | 56 | 246 | 7.0 | 13.0 | 0.00 | 0.00 | 0.00 | 1 | 1010.7 |
| 20260503005059 | 55 | 277 | 7.8 | 13.0 | 0.00 | 0.00 | 0.00 | 1 | 1010.7 |
| 20260503005055 | 55 | 259 | 7.8 | 13.0 | 0.00 | 0.00 | 0.00 | 1 | 1010.7 |
| 20260503004845 | 55 | 275 | 7.8 | 13.0 | 0.00 | 0.00 | 0.00 | 1 | 1010.7 |
| 20260503004805 | 55 | 251 | 7.8 | 13.9 | 0.00 | 0.00 | 0.00 | 1 | 1010.7 |
| 20260503004801 | 55 | 263 | 7.8 | 13.0 | 0.00 | 0.00 | 0.00 | 1 | 1010.7 |
| 20260503004653 | 55 | 229 | 7.8 | 13.0 | 0.00 | 0.00 | 0.00 | 1 | 1010.7 |
| 20260503004343 | 56 | 264 | 7.8 | 13.9 | 0.00 | 0.00 | 0.00 | 1 | 1010.7 |
| 20260503004243 | 55 | 274 | 7.8 | 13.9 | 0.00 | 0.00 | 0.00 | 1 | 1010.7 |
| 20260503004143 | 56 | 233 | 7.8 | 13.9 | 0.00 | 0.00 | 0.00 | 1 | 1010.7 |
| 20260503004043 | 56 | 238 | 7.0 | 13.9 | 0.00 | 0.00 | 0.00 | 1 | 1010.7 |
| 20260503003943 | 56 | 248 | 7.0 | 13.9 | 0.00 | 0.00 | 0.00 | 1 | 1010.7 |
| 20260503003843 | 56 | 252 | 7.0 | 13.9 | 0.00 | 0.00 | 0.00 | 1 | 1010.7 |
| 20260503003743 | 56 | 261 | 7.0 | 13.9 | 0.00 | 0.00 | 0.00 | 1 | 1010.7 |
| 20260503003643 | 56 | 245 | 7.0 | 13.9 | 0.00 | 0.00 | 0.00 | 1 | 1010.7 |
| 20260503003543 | 56 | 228 | 7.0 | 12.2 | 0.00 | 0.00 | 0.00 | 1 | 1010.7 |
| 20260503003442 | 56 | 221 | 7.0 | 13.0 | 0.00 | 0.00 | 0.00 | 1 | 1010.7 |
| 20260503003355 | 56 | 281 | 7.0 | 13.0 | 0.00 | 0.00 | 0.00 | 1 | 1010.7 |
| 20260503003247 | 56 | 290 | 7.0 | 13.0 | 0.00 | 0.00 | 0.00 | 1 | 1010.7 |
| 20260503003043 | 56 | 261 | 7.8 | 13.0 | 0.00 | 0.00 | 0.00 | 1 | 1010.7 |
| 20260503002943 | 56 | 289 | 7.8 | 13.0 | 0.00 | 0.00 | 0.00 | 1 | 1010.7 |
| 20260503002843 | 56 | 265 | 7.8 | 13.0 | 0.00 | 0.00 | 0.00 | 1 | 1010.7 |
| 20260503002743 | 56 | 239 | 7.8 | 13.0 | 0.00 | 0.00 | 0.00 | 1 | 1010.8 |
| 20260503002636 | 56 | 252 | 7.0 | 13.0 | 0.00 | 0.00 | 0.00 | 1 | 1010.8 |
| 20260503002536 | 56 | 273 | 7.0 | 13.0 | 0.00 | 0.00 | 0.00 | 1 | 1010.8 |
| 20260503002437 | 56 | 281 | 7.0 | 13.0 | 0.00 | 0.00 | 0.00 | 1 | 1010.8 |
| 20260503002338 | 56 | 263 | 7.0 | 13.0 | 0.00 | 0.00 | 0.00 | 1 | 1010.8 |
| 20260503002237 | 56 | 279 | 7.0 | 13.0 | 0.00 | 0.00 | 0.00 | 1 | 1010.8 |
| 20260503002131 | 56 | 291 | 7.0 | 12.2 | 0.00 | 0.00 | 0.00 | 1 | 1010.8 |
| 20260503002031 | 56 | 244 | 7.0 | 12.2 | 0.00 | 0.00 | 0.00 | 1 | 1010.8 |
| 20260503001931 | 56 | 296 | 7.0 | 12.2 | 0.00 | 0.00 | 0.00 | 1 | 1010.8 |
| 20260503001831 | 56 | 305 | 7.8 | 12.2 | 0.00 | 0.00 | 0.00 | 1 | 1010.9 |
| 20260503001731 | 56 | 262 | 7.8 | 13.0 | 0.00 | 0.00 | 0.00 | 1 | 1010.8 |
| 20260503001627 | 56 | 269 | 8.7 | 13.0 | 0.00 | 0.00 | 0.00 | 1 | 1010.9 |
| 20260503001536 | 56 | 242 | 7.8 | 13.0 | 0.00 | 0.00 | 0.00 | 1 | 1010.9 |
| 20260503001531 | 56 | 258 | 7.8 | 13.0 | 0.00 | 0.00 | 0.00 | 1 | 1010.9 |
| 20260503001327 | 56 | 276 | 7.8 | 13.0 | 0.00 | 0.00 | 0.00 | 1 | 1010.9 |
| 20260503001227 | 56 | 247 | 7.8 | 13.0 | 0.00 | 0.00 | 0.00 | 1 | 1010.9 |
| 20260503001127 | 56 | 260 | 8.7 | 13.0 | 0.00 | 0.00 | 0.00 | 1 | 1010.9 |
| 20260503001027 | 56 | 259 | 8.7 | 13.0 | 0.00 | 0.00 | 0.00 | 1 | 1010.9 |
| 20260503000935 | 56 | 244 | 8.7 | 13.9 | 0.00 | 0.00 | 0.00 | 1 | 1010.9 |
| 20260503000930 | 56 | 243 | 8.7 | 13.9 | 0.00 | 0.00 | 0.00 | 1 | 1010.9 |
| 20260503000727 | 56 | 254 | 8.7 | 13.9 | 0.00 | 0.00 | 0.00 | 1 | 1010.9 |
| 20260503000627 | 56 | 272 | 7.8 | 13.9 | 0.00 | 0.00 | 0.00 | 1 | 1010.9 |
| 20260503000528 | 56 | 244 | 7.8 | 13.9 | 0.00 | 0.00 | 0.00 | 1 | 1010.9 |
| 20260503000430 | 56 | 244 | 7.8 | 13.9 | 0.00 | 0.00 | 0.00 | 1 | 1010.8 |
| 20260503000327 | 56 | 233 | 7.8 | 13.9 | 0.00 | 0.00 | 0.00 | 1 | 1010.8 |
| 20260503000227 | 56 | 245 | 7.8 | 13.9 | 0.00 | 0.00 | 0.00 | 1 | 1010.8 |
| 20260503000127 | 56 | 257 | 8.7 | 13.9 | 0.00 | 0.00 | 0.00 | 1 | 1010.9 |
| 20260503000027 | 56 | 279 | 7.8 | 13.9 | 0.00 | 0.00 | 0.00 | 1 | 1010.9 |
| 20260502235922 | 56 | 248 | 7.8 | 13.0 | 0.00 | 0.00 | 0.00 | 1 | 1010.9 |
| 20260502235831 | 56 | 227 | 7.8 | 13.0 | 0.00 | 0.00 | 0.00 | 1 | 1010.9 |
| 20260502235827 | 56 | 279 | 7.8 | 13.0 | 0.00 | 0.00 | 0.00 | 1 | 1010.9 |
| 20260502235622 | 56 | 306 | 8.7 | 13.0 | 0.00 | 0.00 | 0.00 | 1 | 1010.9 |
| 20260502235523 | 56 | 315 | 8.7 | 13.0 | 0.00 | 0.00 | 0.00 | 1 | 1010.9 |
| 20260502235422 | 56 | 274 | 8.7 | 13.0 | 0.00 | 0.00 | 0.00 | 1 | 1010.9 |
| 20260502235323 | 56 | 275 | 8.7 | 13.0 | 0.00 | 0.00 | 0.00 | 1 | 1011.0 |
| 20260502235223 | 56 | 248 | 8.7 | 13.9 | 0.00 | 0.00 | 0.00 | 1 | 1010.9 |
| 20260502235123 | 56 | 265 | 8.7 | 13.9 | 0.00 | 0.00 | 0.00 | 1 | 1010.9 |
| 20260502235023 | 56 | 242 | 8.7 | 13.9 | 0.00 | 0.00 | 0.00 | 1 | 1010.9 |
| 20260502234923 | 56 | 281 | 8.7 | 13.9 | 0.00 | 0.00 | 0.00 | 1 | 1010.9 |
| 20260502234823 | 56 | 288 | 8.7 | 13.9 | 0.00 | 0.00 | 0.00 | 1 | 1010.9 |
| 20260502234723 | 56 | 248 | 8.7 | 13.9 | 0.00 | 0.00 | 0.00 | 1 | 1010.9 |
| 20260502234622 | 56 | 257 | 8.7 | 13.9 | 0.00 | 0.00 | 0.00 | 1 | 1010.9 |
| 20260502234522 | 56 | 261 | 8.7 | 13.9 | 0.00 | 0.00 | 0.00 | 1 | 1011.0 |
| 20260502234423 | 56 | 212 | 9.6 | 13.9 | 0.00 | 0.00 | 0.00 | 1 | 1010.9 |
| 20260502234323 | 56 | 272 | 9.6 | 13.9 | 0.00 | 0.00 | 0.00 | 1 | 1011.0 |
| 20260502234223 | 56 | 269 | 9.6 | 13.9 | 0.00 | 0.00 | 0.00 | 1 | 1011.0 |
| 20260502234123 | 56 | 234 | 9.6 | 14.8 | 0.00 | 0.00 | 0.00 | 1 | 1011.0 |
| 20260502234023 | 56 | 217 | 9.6 | 14.8 | 0.00 | 0.00 | 0.00 | 1 | 1011.0 |
| 20260502233922 | 56 | 248 | 9.6 | 14.8 | 0.00 | 0.00 | 0.00 | 1 | 1011.0 |
| 20260502233823 | 56 | 248 | 9.6 | 14.8 | 0.00 | 0.00 | 0.00 | 1 | 1011.0 |
| 20260502233723 | 56 | 240 | 9.6 | 14.8 | 0.00 | 0.00 | 0.00 | 1 | 1011.0 |
| 20260502233623 | 56 | 230 | 9.6 | 14.8 | 0.00 | 0.00 | 0.00 | 1 | 1011.0 |
| 20260502233523 | 56 | 239 | 9.6 | 14.8 | 0.00 | 0.00 | 0.00 | 1 | 1011.0 |
| 20260502233423 | 56 | 245 | 9.6 | 14.8 | 0.00 | 0.00 | 0.00 | 1 | 1011.0 |
| 20260502233323 | 56 | 265 | 9.6 | 14.8 | 0.00 | 0.00 | 0.00 | 1 | 1011.1 |
| 20260502233223 | 56 | 238 | 9.6 | 14.8 | 0.00 | 0.00 | 0.00 | 1 | 1011.1 |
| 20260502233122 | 56 | 225 | 8.7 | 13.9 | 0.00 | 0.00 | 0.00 | 1 | 1011.0 |
| 20260502233017 | 56 | 257 | 9.6 | 13.9 | 0.00 | 0.00 | 0.00 | 1 | 1011.1 |
| 20260502232917 | 56 | 229 | 9.6 | 13.0 | 0.00 | 0.00 | 0.00 | 1 | 1011.1 |
| 20260502232817 | 56 | 244 | 8.7 | 13.0 | 0.00 | 0.00 | 0.00 | 1 | 1011.1 |
| 20260502232716 | 56 | 254 | 8.7 | 13.0 | 0.00 | 0.00 | 0.00 | 1 | 1011.2 |
| 20260502232617 | 56 | 240 | 8.7 | 13.0 | 0.00 | 0.00 | 0.00 | 1 | 1011.1 |
| 20260502232517 | 56 | 238 | 8.7 | 13.0 | 0.00 | 0.00 | 0.00 | 1 | 1011.2 |
| 20260502232417 | 56 | 254 | 8.7 | 13.0 | 0.00 | 0.00 | 0.00 | 1 | 1011.1 |
| 20260502232317 | 56 | 251 | 8.7 | 13.0 | 0.00 | 0.00 | 0.00 | 1 | 1011.2 |
| 20260502232217 | 56 | 252 | 8.7 | 13.0 | 0.00 | 0.00 | 0.00 | 1 | 1011.2 |
| 20260502232117 | 56 | 220 | 8.7 | 13.0 | 0.00 | 0.00 | 0.00 | 1 | 1011.2 |
| 20260502232016 | 56 | 235 | 8.7 | 13.0 | 0.00 | 0.00 | 0.00 | 1 | 1011.2 |
| 20260502231917 | 56 | 225 | 8.7 | 13.0 | 0.00 | 0.00 | 0.00 | 1 | 1011.2 |
| 20260502231815 | 56 | 239 | 8.7 | 13.0 | 0.00 | 0.00 | 0.00 | 1 | 1011.2 |
| 20260502231715 | 56 | 242 | 8.7 | 13.0 | 0.00 | 0.00 | 0.00 | 1 | 1011.3 |
| 20260502231615 | 56 | 256 | 8.7 | 13.0 | 0.00 | 0.00 | 0.00 | 1 | 1011.2 |
| 20260502231515 | 56 | 234 | 8.7 | 13.9 | 0.00 | 0.00 | 0.00 | 1 | 1011.3 |
| 20260502231415 | 56 | 259 | 8.7 | 13.9 | 0.00 | 0.00 | 0.00 | 1 | 1011.3 |
| 20260502231315 | 56 | 238 | 8.7 | 13.9 | 0.00 | 0.00 | 0.00 | 1 | 1011.3 |
| 20260502231215 | 56 | 249 | 8.7 | 13.9 | 0.00 | 0.00 | 0.00 | 1 | 1011.3 |
| 20260502231124 | 56 | 213 | 8.7 | 13.9 | 0.00 | 0.00 | 0.00 | 1 | 1011.3 |
| 20260502231119 | 56 | 247 | 8.7 | 13.9 | 0.00 | 0.00 | 0.00 | 1 | 1011.3 |
| 20260502230915 | 56 | 237 | 8.7 | 13.9 | 0.00 | 0.00 | 0.00 | 1 | 1011.3 |
| 20260502230814 | 56 | 241 | 8.7 | 13.9 | 0.00 | 0.00 | 0.00 | 1 | 1011.4 |
| 20260502230715 | 56 | 271 | 8.7 | 13.9 | 0.00 | 0.00 | 0.00 | 1 | 1011.4 |
| 20260502230624 | 56 | 238 | 7.8 | 13.0 | 0.00 | 0.00 | 0.00 | 1 | 1011.4 |
| 20260502230620 | 56 | 269 | 8.7 | 13.9 | 0.00 | 0.00 | 0.00 | 1 | 1011.4 |
| 20260502230415 | 56 | 230 | 7.8 | 13.0 | 0.00 | 0.00 | 0.00 | 1 | 1011.4 |
| 20260502230315 | 56 | 240 | 7.8 | 13.0 | 0.00 | 0.00 | 0.00 | 1 | 1011.4 |
| 20260502230215 | 56 | 253 | 7.8 | 13.0 | 0.00 | 0.00 | 0.00 | 1 | 1011.4 |
| 20260502230115 | 56 | 255 | 7.0 | 12.2 | 0.00 | 0.00 | 0.00 | 1 | 1011.4 |
| 20260502230015 | 56 | 240 | 7.8 | 12.2 | 0.00 | 0.00 | 0.00 | 1 | 1011.4 |
| 20260502225911 | 56 | 227 | 7.8 | 12.2 | 0.00 | 0.00 | 0.00 | 1 | 1011.5 |
| 20260502225811 | 56 | 244 | 7.0 | 12.2 | 0.00 | 0.00 | 0.00 | 1 | 1011.5 |
| 20260502225719 | 56 | 277 | 7.0 | 13.9 | 0.00 | 0.00 | 0.00 | 1 | 1011.5 |
| 20260502225715 | 56 | 218 | 7.8 | 13.9 | 0.00 | 0.00 | 0.00 | 1 | 1011.5 |
| 20260502225511 | 56 | 240 | 7.8 | 13.9 | 0.00 | 0.00 | 0.00 | 1 | 1011.6 |
| 20260502225411 | 56 | 279 | 7.8 | 13.9 | 0.00 | 0.00 | 0.00 | 1 | 1011.6 |
| 20260502225311 | 56 | 269 | 7.8 | 13.9 | 0.00 | 0.00 | 0.00 | 1 | 1011.6 |